Time,TemperatureF,DewpointF,PressureIn,WindDirection,WindDirectionDegrees,WindSpeedMPH,WindSpeedGustMPH,Humidity,HourlyPrecipIn,Conditions,Clouds,dailyrainin,SoftwareType,DateUTC
2013-02-09 00:00:00,24.9,15.5,30.34,NNE,22,4.8,4.8,67,0.00,,OVC014,0.00,VWS V14.01,2013-02-09 06:00:00,
2013-02-09 00:01:00,24.9,15.5,30.34,SSE,158,2.6,2.6,67,0.00,,OVC014,0.00,VWS V14.01,2013-02-09 06:01:00,
2013-02-09 00:03:00,24.9,15.5,30.34,SSE,158,2.6,2.6,67,0.00,,OVC014,0.00,VWS V14.01,2013-02-09 06:03:00,
2013-02-09 00:04:00,24.9,15.5,30.34,SSE,158,2.6,2.6,67,0.00,,OVC014,0.00,VWS V14.01,2013-02-09 06:04:00,
2013-02-09 00:07:00,24.8,15.4,30.35,South,180,0.0,0.0,67,0.00,,OVC014,0.00,VWS V14.01,2013-02-09 06:07:00,
2013-02-09 00:10:00,24.8,15.4,30.34,South,180,0.0,10.6,67,0.00,,OVC014,0.00,VWS V14.01,2013-02-09 06:10:00,
2013-02-09 00:12:00,24.8,15.4,30.35,South,180,8.0,8.0,67,0.00,,OVC014,0.00,VWS V14.01,2013-02-09 06:12:00,
2013-02-09 00:16:00,24.6,15.6,30.36,SSE,158,0.0,8.0,68,0.00,,OVC014,0.00,VWS V14.01,2013-02-09 06:16:00,
2013-02-09 00:17:00,24.6,15.6,30.35,SSE,158,0.0,0.0,68,0.00,,OVC014,0.00,VWS V14.01,2013-02-09 06:17:00,
2013-02-09 00:18:00,24.8,15.8,30.36,South,180,0.0,0.0,68,0.00,,OVC014,0.00,VWS V14.01,2013-02-09 06:18:00,
2013-02-09 00:22:00,24.6,15.6,30.35,SSE,158,0.0,0.0,68,0.00,,OVC014,0.00,VWS V14.01,2013-02-09 06:22:00,
2013-02-09 00:23:00,24.6,15.6,30.35,SSE,158,4.0,4.0,68,0.00,,OVC014,0.00,VWS V14.01,2013-02-09 06:23:00,
2013-02-09 00:24:00,24.6,15.6,30.35,South,180,1.2,1.2,68,0.00,,OVC014,0.00,VWS V14.01,2013-02-09 06:24:00,
2013-02-09 00:27:00,24.8,15.8,30.34,South,180,0.0,0.0,68,0.00,,OVC014,0.00,VWS V14.01,2013-02-09 06:27:00,
2013-02-09 00:28:00,24.8,15.8,30.34,South,180,0.0,0.0,68,0.00,,OVC014,0.00,VWS V14.01,2013-02-09 06:28:00,
2013-02-09 00:31:00,24.8,15.8,30.34,SSE,158,5.8,5.8,68,0.00,,OVC014,0.00,VWS V14.01,2013-02-09 06:31:00,
2013-02-09 00:32:00,24.6,15.6,30.34,SSE,158,0.0,5.8,68,0.00,,OVC014,0.00,VWS V14.01,2013-02-09 06:32:00,
2013-02-09 00:35:00,24.6,15.6,30.34,SSE,158,8.4,8.4,68,0.00,,OVC014,0.00,VWS V14.01,2013-02-09 06:35:00,
2013-02-09 00:36:00,24.6,15.9,30.34,South,180,7.0,8.4,69,0.00,,OVC014,0.00,VWS V14.01,2013-02-09 06:36:00,
2013-02-09 00:38:00,24.6,15.9,30.34,SSE,158,0.0,7.0,69,0.00,,OVC014,0.00,VWS V14.01,2013-02-09 06:38:00,
2013-02-09 00:40:00,24.6,15.9,30.34,NNE,22,11.0,11.0,69,0.00,,OVC014,0.00,VWS V14.01,2013-02-09 06:40:00,
2013-02-09 00:41:00,24.4,15.7,30.34,SSE,158,1.6,11.0,69,0.00,,OVC014,0.00,VWS V14.01,2013-02-09 06:41:00,
2013-02-09 00:44:00,24.4,15.7,30.33,SSE,158,0.0,10.2,69,0.00,,OVC014,0.00,VWS V14.01,2013-02-09 06:44:00,
2013-02-09 00:46:00,24.4,15.7,30.34,SSE,158,4.8,4.8,69,0.00,,OVC014,0.00,VWS V14.01,2013-02-09 06:46:00,
2013-02-09 00:47:00,24.4,15.7,30.34,SSE,158,4.8,4.8,69,0.00,,OVC014,0.00,VWS V14.01,2013-02-09 06:47:00,
2013-02-09 00:50:00,24.4,15.7,30.34,SSW,202,3.4,12.4,69,0.00,,OVC014,0.00,VWS V14.01,2013-02-09 06:50:00,
2013-02-09 00:52:00,24.2,15.5,30.34,SSW,202,8.4,9.2,69,0.00,,OVC014,0.00,VWS V14.01,2013-02-09 06:52:00,
2013-02-09 00:54:00,24.4,15.7,30.34,South,180,6.6,8.4,69,0.00,,OVC014,0.00,VWS V14.01,2013-02-09 06:54:00,
2013-02-09 00:55:00,24.2,15.5,30.34,South,180,8.4,8.4,69,0.00,,OVC014,0.00,VWS V14.01,2013-02-09 06:55:00,
2013-02-09 01:00:00,24.2,15.8,30.33,SSE,158,4.4,4.4,70,0.00,,OVC014,0.00,VWS V14.01,2013-02-09 07:00:00,
2013-02-09 01:02:00,24.2,15.8,30.34,South,180,0.0,4.4,70,0.00,,OVC014,0.00,VWS V14.01,2013-02-09 07:02:00,
2013-02-09 01:04:00,24.2,15.8,30.33,SSE,158,12.4,12.4,70,0.00,,OVC014,0.00,VWS V14.01,2013-02-09 07:04:00,
2013-02-09 01:05:00,24.2,15.8,30.34,South,180,8.0,12.4,70,0.00,,OVC014,0.00,VWS V14.01,2013-02-09 07:05:00,
2013-02-09 01:09:00,24.2,15.8,30.33,SSE,158,2.2,2.2,70,0.00,,OVC014,0.00,VWS V14.01,2013-02-09 07:09:00,
2013-02-09 01:10:00,24.2,15.8,30.33,NNE,22,4.4,4.4,70,0.00,,OVC014,0.00,VWS V14.01,2013-02-09 07:10:00,
2013-02-09 01:11:00,24.2,15.8,30.33,SSE,158,0.0,4.4,70,0.00,,OVC014,0.00,VWS V14.01,2013-02-09 07:11:00,
2013-02-09 01:12:00,24.2,15.8,30.33,SSE,158,10.2,10.2,70,0.00,,OVC014,0.00,VWS V14.01,2013-02-09 07:12:00,
2013-02-09 01:15:00,24.2,15.8,30.33,SSE,158,3.4,3.4,70,0.00,,OVC014,0.00,VWS V14.01,2013-02-09 07:15:00,
2013-02-09 01:18:00,24.2,15.8,30.32,SSE,158,0.0,3.0,70,0.00,,OVC014,0.00,VWS V14.01,2013-02-09 07:18:00,
2013-02-09 01:19:00,24.2,15.8,30.33,SSE,158,7.0,7.0,70,0.00,,OVC014,0.00,VWS V14.01,2013-02-09 07:19:00,
2013-02-09 01:20:00,24.2,15.8,30.32,SSE,158,0.0,0.0,70,0.00,,OVC014,0.00,VWS V14.01,2013-02-09 07:20:00,
2013-02-09 01:23:00,24.4,16.0,30.33,SSE,158,3.0,3.0,70,0.00,,OVC014,0.00,VWS V14.01,2013-02-09 07:23:00,
2013-02-09 01:24:00,24.4,16.0,30.33,South,180,9.8,9.8,70,0.00,,OVC014,0.00,VWS V14.01,2013-02-09 07:24:00,
2013-02-09 01:28:00,24.4,16.4,30.33,SSW,202,10.2,10.6,71,0.00,,OVC014,0.00,VWS V14.01,2013-02-09 07:28:00,
2013-02-09 01:30:00,24.2,16.2,30.33,South,180,10.6,10.6,71,0.00,,OVC014,0.00,VWS V14.01,2013-02-09 07:30:00,
2013-02-09 01:31:00,24.4,16.4,30.33,SW,225,7.6,10.6,71,0.00,,OVC014,0.00,VWS V14.01,2013-02-09 07:31:00,
2013-02-09 01:33:00,24.4,16.4,30.33,SSE,158,0.0,0.0,71,0.00,,OVC014,0.00,VWS V14.01,2013-02-09 07:33:00,
2013-02-09 01:34:00,24.4,16.4,30.33,SSW,202,0.4,0.4,71,0.00,,OVC014,0.00,VWS V14.01,2013-02-09 07:34:00,
2013-02-09 01:36:00,24.4,16.4,30.34,South,180,0.0,0.0,71,0.00,,OVC014,0.00,VWS V14.01,2013-02-09 07:36:00,
2013-02-09 01:38:00,24.4,16.4,30.33,SSE,158,0.0,0.0,71,0.00,,OVC014,0.00,VWS V14.01,2013-02-09 07:38:00,
2013-02-09 01:40:00,24.4,16.4,30.34,SSE,158,7.6,7.6,71,0.00,,OVC012,0.00,VWS V14.01,2013-02-09 07:40:00,
2013-02-09 01:41:00,24.4,16.4,30.34,SSE,158,1.6,7.6,71,0.00,,OVC012,0.00,VWS V14.01,2013-02-09 07:41:00,
2013-02-09 01:43:00,24.4,16.4,30.34,SSW,202,6.2,6.2,71,0.00,,OVC012,0.00,VWS V14.01,2013-02-09 07:43:00,
2013-02-09 01:44:00,24.4,16.4,30.33,SSW,202,0.0,6.2,71,0.00,,OVC012,0.00,VWS V14.01,2013-02-09 07:44:00,
2013-02-09 01:46:00,24.4,16.4,30.33,SSE,158,0.0,0.0,71,0.00,,OVC012,0.00,VWS V14.01,2013-02-09 07:46:00,
2013-02-09 01:47:00,24.4,16.4,30.33,SSE,158,8.8,8.8,71,0.00,,OVC012,0.00,VWS V14.01,2013-02-09 07:47:00,
2013-02-09 01:50:00,24.4,16.4,30.34,South,180,0.0,0.0,71,0.00,,OVC012,0.00,VWS V14.01,2013-02-09 07:50:00,
2013-02-09 01:51:00,24.4,16.4,30.34,South,180,2.6,2.6,71,0.00,,OVC012,0.00,VWS V14.01,2013-02-09 07:51:00,
2013-02-09 01:52:00,24.4,16.4,30.34,SSW,202,0.0,0.0,71,0.00,,OVC012,0.00,VWS V14.01,2013-02-09 07:52:00,
2013-02-09 01:54:00,24.4,16.4,30.34,South,180,8.8,8.8,71,0.00,,OVC012,0.00,VWS V14.01,2013-02-09 07:54:00,
2013-02-09 01:56:00,24.6,16.5,30.34,SSE,158,4.4,4.4,71,0.00,,OVC012,0.00,VWS V14.01,2013-02-09 07:56:00,
2013-02-09 01:58:00,24.4,16.4,30.34,SSE,158,0.0,4.4,71,0.00,,OVC012,0.00,VWS V14.01,2013-02-09 07:58:00,
2013-02-09 02:00:00,24.4,16.4,30.34,South,180,8.0,10.2,71,0.00,,OVC012,0.00,VWS V14.01,2013-02-09 08:00:00,
2013-02-09 02:02:00,24.4,16.4,30.34,SSE,158,15.6,15.6,71,0.00,,OVC012,0.00,VWS V14.01,2013-02-09 08:02:00,
2013-02-09 02:03:00,24.4,16.4,30.34,South,180,0.0,15.6,71,0.00,,OVC012,0.00,VWS V14.01,2013-02-09 08:03:00,
2013-02-09 02:07:00,24.4,16.4,30.34,South,180,1.6,7.0,71,0.00,,OVC012,0.00,VWS V14.01,2013-02-09 08:07:00,
2013-02-09 02:08:00,24.4,16.4,30.34,SSE,158,9.2,9.2,71,0.00,,OVC012,0.00,VWS V14.01,2013-02-09 08:08:00,
2013-02-09 02:12:00,24.4,16.4,30.33,SSE,158,5.8,5.8,71,0.00,,OVC012,0.00,VWS V14.01,2013-02-09 08:12:00,
2013-02-09 02:13:00,24.4,16.4,30.33,SSE,158,8.0,8.0,71,0.00,,OVC012,0.00,VWS V14.01,2013-02-09 08:13:00,
2013-02-09 02:14:00,24.4,16.4,30.33,SSE,158,0.0,0.0,71,0.00,,OVC012,0.00,VWS V14.01,2013-02-09 08:14:00,
2013-02-09 02:18:00,24.4,16.7,30.33,NNE,22,5.8,10.2,72,0.00,,OVC012,0.00,VWS V14.01,2013-02-09 08:18:00,
2013-02-09 02:20:00,24.4,16.7,30.33,SSE,158,9.8,9.8,72,0.00,,OVC012,0.00,VWS V14.01,2013-02-09 08:20:00,
2013-02-09 02:23:00,24.4,16.4,30.33,SSE,158,0.0,0.0,71,0.00,,OVC012,0.00,VWS V14.01,2013-02-09 08:23:00,
2013-02-09 02:24:00,24.4,16.7,30.33,SSE,158,2.6,2.6,72,0.00,,OVC012,0.00,VWS V14.01,2013-02-09 08:24:00,
2013-02-09 02:26:00,24.4,16.4,30.33,SSE,158,0.0,2.6,71,0.00,,OVC012,0.00,VWS V14.01,2013-02-09 08:26:00,
2013-02-09 02:28:00,24.2,16.2,30.33,South,180,4.0,4.0,71,0.00,,OVC012,0.00,VWS V14.01,2013-02-09 08:28:00,
2013-02-09 02:30:00,24.2,16.2,30.33,South,180,8.4,12.8,71,0.00,,OVC012,0.00,VWS V14.01,2013-02-09 08:30:00,
2013-02-09 02:34:00,24.2,16.2,30.33,South,180,2.6,10.6,71,0.00,,OVC012,0.00,VWS V14.01,2013-02-09 08:34:00,
2013-02-09 02:35:00,24.2,16.2,30.33,SSE,158,7.0,7.0,71,0.00,,OVC012,0.00,VWS V14.01,2013-02-09 08:35:00,
2013-02-09 02:36:00,24.2,16.2,30.33,South,180,2.2,7.0,71,0.00,,OVC012,0.00,VWS V14.01,2013-02-09 08:36:00,
2013-02-09 02:38:00,24.0,16.0,30.32,SSE,158,4.8,4.8,71,0.00,,OVC012,0.00,VWS V14.01,2013-02-09 08:38:00,
2013-02-09 02:39:00,24.0,16.0,30.32,South,180,4.8,4.8,71,0.00,,OVC012,0.00,VWS V14.01,2013-02-09 08:39:00,
2013-02-09 02:42:00,24.2,16.5,30.33,SSW,202,0.0,0.0,72,0.00,,OVC012,0.00,VWS V14.01,2013-02-09 08:42:00,
2013-02-09 02:44:00,24.2,16.5,30.32,South,180,7.0,7.0,72,0.00,,OVC012,0.00,VWS V14.01,2013-02-09 08:44:00,
2013-02-09 02:46:00,24.2,16.5,30.32,SSE,158,5.8,7.0,72,0.00,,OVC012,0.00,VWS V14.01,2013-02-09 08:46:00,
2013-02-09 02:48:00,24.2,16.5,30.32,South,180,5.8,5.8,72,0.00,,OVC012,0.00,VWS V14.01,2013-02-09 08:48:00,
2013-02-09 02:49:00,24.2,16.5,30.32,SSE,158,0.0,5.8,72,0.00,,OVC012,0.00,VWS V14.01,2013-02-09 08:49:00,
2013-02-09 02:51:00,24.4,16.7,30.32,SSW,202,0.0,5.2,72,0.00,,OVC012,0.00,VWS V14.01,2013-02-09 08:51:00,
2013-02-09 02:54:00,24.2,16.5,30.32,SSE,158,7.0,7.6,72,0.00,,OVC012,0.00,VWS V14.01,2013-02-09 08:54:00,
2013-02-09 02:56:00,24.2,16.5,30.32,SSE,158,1.6,7.0,72,0.00,,OVC012,0.00,VWS V14.01,2013-02-09 08:56:00,
2013-02-09 02:59:00,24.2,16.5,30.32,South,180,9.2,9.2,72,0.00,,OVC012,0.00,VWS V14.01,2013-02-09 08:59:00,
2013-02-09 03:00:00,24.2,16.5,30.32,South,180,2.2,9.2,72,0.00,,OVC012,0.00,VWS V14.01,2013-02-09 09:00:00,
2013-02-09 03:04:00,24.2,16.5,30.32,SSE,158,0.0,0.0,72,0.00,,OVC012,0.00,VWS V14.01,2013-02-09 09:04:00,
2013-02-09 03:05:00,24.2,16.5,30.32,SSE,158,2.6,2.6,72,0.00,,OVC012,0.00,VWS V14.01,2013-02-09 09:05:00,
2013-02-09 03:06:00,24.2,16.5,30.32,South,180,0.0,2.6,72,0.00,,OVC012,0.00,VWS V14.01,2013-02-09 09:06:00,
2013-02-09 03:08:00,24.2,16.5,30.32,SSE,158,0.0,10.2,72,0.00,,OVC012,0.00,VWS V14.01,2013-02-09 09:08:00,
2013-02-09 03:09:00,24.2,16.5,30.32,SSE,158,0.0,0.0,72,0.00,,OVC012,0.00,VWS V14.01,2013-02-09 09:09:00,
2013-02-09 03:10:00,24.2,16.5,30.32,SSE,158,0.0,0.0,72,0.00,,OVC012,0.00,VWS V14.01,2013-02-09 09:10:00,
2013-02-09 03:14:00,24.2,16.5,30.32,South,180,5.2,8.4,72,0.00,,OVC012,0.00,VWS V14.01,2013-02-09 09:14:00,
2013-02-09 03:15:00,24.2,16.5,30.32,SSE,158,4.0,4.0,72,0.00,,OVC012,0.00,VWS V14.01,2013-02-09 09:15:00,
2013-02-09 03:16:00,24.2,16.8,30.32,South,180,10.2,10.2,73,0.00,,OVC012,0.00,VWS V14.01,2013-02-09 09:16:00,
2013-02-09 03:19:00,24.2,16.8,30.32,SSW,202,0.0,0.0,73,0.00,,OVC012,0.00,VWS V14.01,2013-02-09 09:19:00,
2013-02-09 03:22:00,24.2,16.8,30.32,SSE,158,5.8,5.8,73,0.00,,OVC012,0.00,VWS V14.01,2013-02-09 09:22:00,
2013-02-09 03:23:00,24.2,16.8,30.32,SSE,158,4.4,4.4,73,0.00,,OVC012,0.00,VWS V14.01,2013-02-09 09:23:00,
2013-02-09 03:24:00,24.4,17.0,30.32,SSE,158,0.0,4.4,73,0.00,,OVC012,0.00,VWS V14.01,2013-02-09 09:24:00,
2013-02-09 03:26:00,24.4,17.0,30.32,SSE,158,0.0,8.4,73,0.00,,OVC012,0.00,VWS V14.01,2013-02-09 09:26:00,
2013-02-09 03:27:00,24.4,17.0,30.32,SSE,158,0.0,0.0,73,0.00,,OVC012,0.00,VWS V14.01,2013-02-09 09:27:00,
2013-02-09 03:31:00,24.4,17.0,30.32,South,180,4.4,4.4,73,0.00,,OVC012,0.00,VWS V14.01,2013-02-09 09:31:00,
2013-02-09 03:32:00,24.4,17.0,30.31,SSE,158,0.0,10.6,73,0.00,,OVC012,0.00,VWS V14.01,2013-02-09 09:32:00,
2013-02-09 03:33:00,24.4,17.0,30.31,SSE,158,0.0,0.0,73,0.00,,OVC012,0.00,VWS V14.01,2013-02-09 09:33:00,
2013-02-09 03:34:00,24.4,17.0,30.31,SSW,202,1.6,1.6,73,0.00,,OVC012,0.00,VWS V14.01,2013-02-09 09:34:00,
2013-02-09 03:38:00,24.4,17.0,30.31,SSE,158,0.0,0.0,73,0.00,,OVC012,0.00,VWS V14.01,2013-02-09 09:38:00,
2013-02-09 03:39:00,24.4,17.0,30.31,SSW,202,0.0,0.0,73,0.00,,OVC012,0.00,VWS V14.01,2013-02-09 09:39:00,
2013-02-09 03:41:00,24.4,17.0,30.32,SSE,158,0.0,0.0,73,0.00,,OVC012,0.00,VWS V14.01,2013-02-09 09:41:00,
2013-02-09 03:44:00,24.4,17.0,30.32,South,180,11.0,11.0,73,0.00,,OVC012,0.00,VWS V14.01,2013-02-09 09:44:00,
2013-02-09 03:46:00,24.8,17.4,30.32,SSE,158,0.0,11.0,73,0.00,,OVC012,0.00,VWS V14.01,2013-02-09 09:46:00,
2013-02-09 03:47:00,24.2,16.8,30.32,SSW,202,0.0,0.0,73,0.00,,OVC012,0.00,VWS V14.01,2013-02-09 09:47:00,
2013-02-09 03:51:00,24.2,16.8,30.32,South,180,10.2,10.2,73,0.00,,OVC012,0.00,VWS V14.01,2013-02-09 09:51:00,
2013-02-09 03:52:00,24.2,16.8,30.32,SSE,158,12.0,12.0,73,0.00,,OVC012,0.00,VWS V14.01,2013-02-09 09:52:00,
2013-02-09 03:53:00,24.2,16.8,30.32,South,180,6.6,12.0,73,0.00,,OVC012,0.00,VWS V14.01,2013-02-09 09:53:00,
2013-02-09 03:54:00,24.4,17.0,30.32,SSE,158,0.0,0.0,73,0.00,,OVC012,0.00,VWS V14.01,2013-02-09 09:54:00,
2013-02-09 03:58:00,24.2,16.8,30.31,SSW,202,0.0,0.0,73,0.00,,OVC012,0.00,VWS V14.01,2013-02-09 09:58:00,
2013-02-09 03:59:00,24.4,17.0,30.32,South,180,0.0,0.0,73,0.00,,OVC012,0.00,VWS V14.01,2013-02-09 09:59:00,
2013-02-09 04:00:00,24.2,16.8,30.32,South,180,0.0,0.0,73,0.00,,OVC012,0.00,VWS V14.01,2013-02-09 10:00:00,
2013-02-09 04:01:00,24.2,16.8,30.32,South,180,0.0,0.0,73,0.00,,OVC012,0.00,VWS V14.01,2013-02-09 10:01:00,
2013-02-09 04:05:00,24.4,17.0,30.32,South,180,0.0,6.6,73,0.00,,OVC012,0.00,VWS V14.01,2013-02-09 10:05:00,
2013-02-09 04:06:00,24.4,17.0,30.32,South,180,0.0,6.6,73,0.00,,OVC012,0.00,VWS V14.01,2013-02-09 10:06:00,
2013-02-09 04:10:00,24.4,17.0,30.32,South,180,10.6,10.6,73,0.00,,OVC012,0.00,VWS V14.01,2013-02-09 10:10:00,
2013-02-09 04:11:00,24.4,17.0,30.32,SW,225,6.2,10.6,73,0.00,,OVC012,0.00,VWS V14.01,2013-02-09 10:11:00,
2013-02-09 04:12:00,24.4,17.0,30.32,SSE,158,2.2,2.2,73,0.00,,OVC012,0.00,VWS V14.01,2013-02-09 10:12:00,
2013-02-09 04:13:00,24.4,17.0,30.32,SSW,202,2.6,2.6,73,0.00,,OVC012,0.00,VWS V14.01,2013-02-09 10:13:00,
2013-02-09 04:16:00,24.4,17.0,30.32,SSE,158,7.0,7.0,73,0.00,,OVC012,0.00,VWS V14.01,2013-02-09 10:16:00,
2013-02-09 04:18:00,24.4,17.0,30.32,South,180,0.0,0.0,73,0.00,,OVC012,0.00,VWS V14.01,2013-02-09 10:18:00,
2013-02-09 04:20:00,24.4,17.0,30.31,SSE,158,4.8,4.8,73,0.00,,OVC012,0.00,VWS V14.01,2013-02-09 10:20:00,
2013-02-09 04:24:00,24.6,17.2,30.32,SSW,202,2.2,5.8,73,0.00,,OVC012,0.00,VWS V14.01,2013-02-09 10:24:00,
2013-02-09 04:25:00,24.6,17.2,30.32,SSE,158,2.6,2.6,73,0.00,,OVC012,0.00,VWS V14.01,2013-02-09 10:25:00,
2013-02-09 04:27:00,24.6,17.2,30.32,South,180,4.0,4.8,73,0.00,,OVC012,0.00,VWS V14.01,2013-02-09 10:27:00,
2013-02-09 04:30:00,24.6,17.2,30.32,South,180,0.0,0.0,73,0.00,,OVC012,0.00,VWS V14.01,2013-02-09 10:30:00,
2013-02-09 04:32:00,24.9,17.8,30.32,SSW,202,6.2,6.2,74,0.00,,OVC012,0.00,VWS V14.01,2013-02-09 10:32:00,
2013-02-09 04:36:00,24.8,17.7,30.32,SSE,158,0.0,0.0,74,0.00,,OVC012,0.00,VWS V14.01,2013-02-09 10:36:00,
2013-02-09 04:37:00,24.9,17.8,30.32,SSE,158,4.8,4.8,74,0.00,,OVC012,0.00,VWS V14.01,2013-02-09 10:37:00,
2013-02-09 04:38:00,24.9,17.8,30.32,SSW,202,5.8,5.8,74,0.00,,OVC012,0.00,VWS V14.01,2013-02-09 10:38:00,
2013-02-09 04:41:00,24.9,17.8,30.31,SSE,158,2.2,4.8,74,0.00,,OVC012,0.00,VWS V14.01,2013-02-09 10:41:00,
2013-02-09 04:42:00,24.9,17.8,30.32,SSE,158,0.0,0.0,74,0.00,,OVC012,0.00,VWS V14.01,2013-02-09 10:42:00,
2013-02-09 04:44:00,24.9,17.8,30.32,South,180,0.0,0.0,74,0.00,,OVC012,0.00,VWS V14.01,2013-02-09 10:44:00,
2013-02-09 04:46:00,24.9,17.8,30.32,SSE,158,2.2,2.2,74,0.00,,OVC012,0.00,VWS V14.01,2013-02-09 10:46:00,
2013-02-09 04:47:00,24.8,17.7,30.31,South,180,7.0,7.0,74,0.00,,OVC012,0.00,VWS V14.01,2013-02-09 10:47:00,
2013-02-09 04:49:00,24.9,17.8,30.31,SSE,158,0.0,0.0,74,0.00,,OVC012,0.00,VWS V14.01,2013-02-09 10:49:00,
2013-02-09 04:50:00,24.8,17.7,30.31,SSW,202,4.8,4.8,74,0.00,,OVC012,0.00,VWS V14.01,2013-02-09 10:50:00,
2013-02-09 04:53:00,24.9,17.8,30.31,South,180,5.2,7.6,74,0.00,,OVC012,0.00,VWS V14.01,2013-02-09 10:53:00,
2013-02-09 04:56:00,24.8,17.7,30.31,South,180,6.2,6.2,74,0.00,,OVC012,0.00,VWS V14.01,2013-02-09 10:56:00,
2013-02-09 04:58:00,24.8,17.7,30.30,South,180,4.0,6.2,74,0.00,,OVC012,0.00,VWS V14.01,2013-02-09 10:58:00,
2013-02-09 04:59:00,24.8,17.7,30.31,SSE,158,6.2,6.2,74,0.00,,OVC012,0.00,VWS V14.01,2013-02-09 10:59:00,
2013-02-09 05:02:00,24.9,17.8,30.31,SSE,158,4.0,4.0,74,0.00,,OVC012,0.00,VWS V14.01,2013-02-09 11:02:00,
2013-02-09 05:04:00,24.8,17.7,30.30,SSE,158,5.8,5.8,74,0.00,,OVC012,0.00,VWS V14.01,2013-02-09 11:04:00,
2013-02-09 05:05:00,24.6,17.5,30.31,SSE,158,4.8,5.8,74,0.00,,OVC012,0.00,VWS V14.01,2013-02-09 11:05:00,
2013-02-09 05:06:00,24.6,17.5,30.31,SSE,158,0.0,0.0,74,0.00,,OVC012,0.00,VWS V14.01,2013-02-09 11:06:00,
2013-02-09 05:09:00,24.6,17.5,30.30,SSE,158,8.0,8.0,74,0.00,,OVC012,0.00,VWS V14.01,2013-02-09 11:09:00,
2013-02-09 05:10:00,24.6,17.5,30.31,South,180,0.0,8.0,74,0.00,,OVC012,0.00,VWS V14.01,2013-02-09 11:10:00,
2013-02-09 05:12:00,24.6,17.5,30.30,SSE,158,0.0,0.0,74,0.00,,OVC012,0.00,VWS V14.01,2013-02-09 11:12:00,
2013-02-09 05:15:00,24.6,17.5,30.30,NE,45,0.0,0.0,74,0.00,,OVC012,0.00,VWS V14.01,2013-02-09 11:15:00,
2013-02-09 05:16:00,24.6,17.5,30.29,SSE,158,6.6,6.6,74,0.00,,OVC012,0.00,VWS V14.01,2013-02-09 11:16:00,
2013-02-09 05:17:00,24.4,17.3,30.30,SSE,158,8.0,8.0,74,0.00,,OVC012,0.00,VWS V14.01,2013-02-09 11:17:00,
2013-02-09 05:19:00,24.4,17.3,30.30,SSE,158,4.8,4.8,74,0.00,,OVC012,0.00,VWS V14.01,2013-02-09 11:19:00,
2013-02-09 05:21:00,24.6,17.5,30.30,South,180,0.0,5.8,74,0.00,,OVC012,0.00,VWS V14.01,2013-02-09 11:21:00,
2013-02-09 05:22:00,24.4,17.3,30.30,South,180,6.6,6.6,74,0.00,,OVC012,0.00,VWS V14.01,2013-02-09 11:22:00,
2013-02-09 05:24:00,24.4,17.3,30.30,SSW,202,0.0,6.6,74,0.00,,OVC012,0.00,VWS V14.01,2013-02-09 11:24:00,
2013-02-09 05:26:00,24.4,17.3,30.30,SSE,158,5.8,5.8,74,0.00,,OVC012,0.00,VWS V14.01,2013-02-09 11:26:00,
2013-02-09 05:29:00,24.4,17.3,30.29,South,180,2.6,2.6,74,0.00,,OVC012,0.00,VWS V14.01,2013-02-09 11:29:00,
2013-02-09 05:30:00,24.6,17.5,30.30,South,180,7.6,7.6,74,0.00,,OVC012,0.00,VWS V14.01,2013-02-09 11:30:00,
2013-02-09 05:31:00,24.6,17.5,30.30,SSW,202,5.2,7.6,74,0.00,,OVC012,0.00,VWS V14.01,2013-02-09 11:31:00,
2013-02-09 05:33:00,24.6,17.5,30.30,South,180,8.4,8.4,74,0.00,,OVC012,0.00,VWS V14.01,2013-02-09 11:33:00,
2013-02-09 05:34:00,24.6,17.5,30.30,SSE,158,2.6,2.6,74,0.00,,OVC012,0.00,VWS V14.01,2013-02-09 11:34:00,
2013-02-09 05:36:00,24.6,17.5,30.30,SSW,202,0.0,0.0,74,0.00,,OVC012,0.00,VWS V14.01,2013-02-09 11:36:00,
2013-02-09 05:39:00,24.6,17.5,30.31,South,180,0.0,0.0,74,0.00,,OVC012,0.00,VWS V14.01,2013-02-09 11:39:00,
2013-02-09 05:40:00,24.6,17.5,30.31,SSW,202,0.0,0.0,74,0.00,,OVC012,0.00,VWS V14.01,2013-02-09 11:40:00,
2013-02-09 05:41:00,24.6,17.5,30.31,South,180,0.0,0.0,74,0.00,,OVC012,0.00,VWS V14.01,2013-02-09 11:41:00,
2013-02-09 05:44:00,24.6,17.5,30.31,SSW,202,7.0,7.0,74,0.00,,OVC012,0.00,VWS V14.01,2013-02-09 11:44:00,
2013-02-09 05:45:00,24.6,17.5,30.32,SSE,158,7.0,7.0,74,0.00,,OVC012,0.00,VWS V14.01,2013-02-09 11:45:00,
2013-02-09 05:49:00,24.6,17.5,30.31,South,180,1.6,1.6,74,0.00,,OVC012,0.00,VWS V14.01,2013-02-09 11:49:00,
2013-02-09 05:50:00,24.6,17.5,30.31,SSE,158,2.2,2.2,74,0.00,,OVC012,0.00,VWS V14.01,2013-02-09 11:50:00,
2013-02-09 05:52:00,24.6,17.5,30.31,South,180,7.0,7.0,74,0.00,,OVC012,0.00,VWS V14.01,2013-02-09 11:52:00,
2013-02-09 05:54:00,24.6,17.5,30.31,SSE,158,0.0,0.0,74,0.00,,OVC012,0.00,VWS V14.01,2013-02-09 11:54:00,
2013-02-09 05:56:00,24.6,17.5,30.31,SSW,202,7.0,7.0,74,0.00,,OVC012,0.00,VWS V14.01,2013-02-09 11:56:00,
2013-02-09 05:57:00,24.8,17.7,30.31,South,180,0.0,7.0,74,0.00,,OVC012,0.00,VWS V14.01,2013-02-09 11:57:00,
2013-02-09 05:58:00,24.8,17.7,30.31,SSE,158,6.6,7.0,74,0.00,,OVC012,0.00,VWS V14.01,2013-02-09 11:58:00,
2013-02-09 06:02:00,24.9,17.8,30.31,South,180,0.0,4.4,74,0.00,,OVC012,0.00,VWS V14.01,2013-02-09 12:02:00,
2013-02-09 06:04:00,24.9,17.8,30.31,SSE,158,0.0,0.0,74,0.00,,OVC012,0.00,VWS V14.01,2013-02-09 12:04:00,
2013-02-09 06:06:00,24.9,17.8,30.31,SSE,158,5.2,5.2,74,0.00,,OVC012,0.00,VWS V14.01,2013-02-09 12:06:00,
2013-02-09 06:07:00,24.9,17.8,30.31,SSE,158,3.0,5.2,74,0.00,,OVC012,0.00,VWS V14.01,2013-02-09 12:07:00,
2013-02-09 06:08:00,24.9,17.8,30.31,SSW,202,0.0,5.2,74,0.00,,OVC012,0.00,VWS V14.01,2013-02-09 12:08:00,
2013-02-09 06:10:00,24.9,17.8,30.31,South,180,4.8,12.0,74,0.00,,OVC012,0.00,VWS V14.01,2013-02-09 12:10:00,
2013-02-09 06:12:00,24.9,17.8,30.31,SSE,158,0.0,7.0,74,0.00,,OVC012,0.00,VWS V14.01,2013-02-09 12:12:00,
2013-02-09 06:14:00,24.9,17.8,30.31,SSW,202,9.8,9.8,74,0.00,,OVC012,0.00,VWS V14.01,2013-02-09 12:14:00,
2013-02-09 06:15:00,24.9,17.8,30.31,SSE,158,4.0,9.8,74,0.00,,OVC012,0.00,VWS V14.01,2013-02-09 12:15:00,
2013-02-09 06:18:00,24.9,17.8,30.31,South,180,0.0,3.0,74,0.00,,OVC012,0.00,VWS V14.01,2013-02-09 12:18:00,
2013-02-09 06:19:00,24.9,17.8,30.31,SSE,158,4.4,4.4,74,0.00,,OVC012,0.00,VWS V14.01,2013-02-09 12:19:00,
2013-02-09 06:20:00,24.9,17.8,30.31,SSE,158,0.0,0.0,74,0.00,,OVC012,0.00,VWS V14.01,2013-02-09 12:20:00,
2013-02-09 06:24:00,24.9,17.8,30.30,SSE,158,0.0,0.0,74,0.00,,OVC012,0.00,VWS V14.01,2013-02-09 12:24:00,
2013-02-09 06:25:00,24.9,17.8,30.30,SSE,158,0.0,0.0,74,0.00,,OVC012,0.00,VWS V14.01,2013-02-09 12:25:00,
2013-02-09 06:26:00,24.9,17.8,30.31,South,180,0.0,0.0,74,0.00,,OVC012,0.00,VWS V14.01,2013-02-09 12:26:00,
2013-02-09 06:29:00,24.9,17.8,30.31,South,180,0.0,9.2,74,0.00,,OVC012,0.00,VWS V14.01,2013-02-09 12:29:00,
2013-02-09 06:30:00,24.9,17.8,30.31,South,180,8.4,8.4,74,0.00,,OVC012,0.00,VWS V14.01,2013-02-09 12:30:00,
2013-02-09 06:32:00,24.9,17.8,30.31,South,180,0.0,8.4,74,0.00,,OVC012,0.00,VWS V14.01,2013-02-09 12:32:00,
2013-02-09 06:36:00,24.9,17.8,30.31,SSE,158,0.0,12.0,74,0.00,,OVC012,0.00,VWS V14.01,2013-02-09 12:36:00,
2013-02-09 06:38:00,24.9,17.8,30.31,SSE,158,0.0,0.0,74,0.00,,OVC012,0.00,VWS V14.01,2013-02-09 12:38:00,
2013-02-09 06:40:00,24.9,17.8,30.31,South,180,9.2,9.2,74,0.00,,OVC012,0.00,VWS V14.01,2013-02-09 12:40:00,
2013-02-09 06:41:00,24.9,17.8,30.31,South,180,0.0,9.2,74,0.00,,OVC012,0.00,VWS V14.01,2013-02-09 12:41:00,
2013-02-09 06:42:00,24.9,17.8,30.31,SSE,158,7.0,9.2,74,0.00,,OVC012,0.00,VWS V14.01,2013-02-09 12:42:00,
2013-02-09 06:45:00,24.9,17.8,30.31,South,180,8.8,8.8,74,0.00,,OVC012,0.00,VWS V14.01,2013-02-09 12:45:00,
2013-02-09 06:46:00,24.9,17.8,30.31,SW,225,0.0,8.8,74,0.00,,OVC012,0.00,VWS V14.01,2013-02-09 12:46:00,
2013-02-09 06:48:00,24.9,17.8,30.30,South,180,7.6,7.6,74,0.00,,OVC012,0.00,VWS V14.01,2013-02-09 12:48:00,
2013-02-09 06:50:00,24.9,17.8,30.30,SSW,202,6.2,6.2,74,0.00,,OVC012,0.00,VWS V14.01,2013-02-09 12:50:00,
2013-02-09 06:52:00,24.9,17.8,30.31,SSE,158,0.0,6.2,74,0.00,,OVC012,0.00,VWS V14.01,2013-02-09 12:52:00,
2013-02-09 06:53:00,24.9,17.8,30.31,SSW,202,0.0,0.0,74,0.00,,OVC012,0.00,VWS V14.01,2013-02-09 12:53:00,
2013-02-09 06:55:00,24.9,17.8,30.31,SSE,158,4.0,4.0,74,0.00,,OVC012,0.00,VWS V14.01,2013-02-09 12:55:00,
2013-02-09 06:56:00,24.9,17.8,30.31,SSE,158,0.0,0.0,74,0.00,,OVC012,0.00,VWS V14.01,2013-02-09 12:56:00,
2013-02-09 06:59:00,24.9,17.8,30.31,South,180,0.0,0.0,74,0.00,,OVC012,0.00,VWS V14.01,2013-02-09 12:59:00,
2013-02-09 07:01:00,24.9,17.8,30.32,SSE,158,5.8,5.8,74,0.00,,OVC012,0.00,VWS V14.01,2013-02-09 13:01:00,
2013-02-09 07:02:00,24.9,17.8,30.31,SSW,202,0.0,5.8,74,0.00,,OVC012,0.00,VWS V14.01,2013-02-09 13:02:00,
2013-02-09 07:05:00,24.9,17.8,30.32,South,180,0.0,0.0,74,0.00,,OVC012,0.00,VWS V14.01,2013-02-09 13:05:00,
2013-02-09 07:06:00,25.1,18.0,30.32,South,180,0.0,0.0,74,0.00,,OVC012,0.00,VWS V14.01,2013-02-09 13:06:00,
2013-02-09 07:08:00,24.9,17.8,30.32,South,180,4.0,4.0,74,0.00,,OVC012,0.00,VWS V14.01,2013-02-09 13:08:00,
2013-02-09 07:10:00,25.1,18.0,30.32,SW,225,0.0,4.8,74,0.00,,OVC012,0.00,VWS V14.01,2013-02-09 13:10:00,
2013-02-09 07:12:00,25.1,18.0,30.31,South,180,9.2,10.6,74,0.00,,OVC012,0.00,VWS V14.01,2013-02-09 13:12:00,
2013-02-09 07:14:00,25.1,18.0,30.31,SSE,158,4.4,9.2,74,0.00,,OVC012,0.00,VWS V14.01,2013-02-09 13:14:00,
2013-02-09 07:17:00,25.1,18.0,30.30,SSW,202,0.0,0.0,74,0.00,,OVC012,0.00,VWS V14.01,2013-02-09 13:17:00,
2013-02-09 07:20:00,25.1,18.0,30.30,SSE,158,3.0,4.0,74,0.00,,OVC012,0.00,VWS V14.01,2013-02-09 13:20:00,
2013-02-09 07:22:00,25.1,18.0,30.31,SSW,202,6.6,6.6,74,0.00,,OVC012,0.00,VWS V14.01,2013-02-09 13:22:00,
2013-02-09 07:25:00,25.1,18.0,30.31,SSW,202,2.6,2.6,74,0.00,,OVC012,0.00,VWS V14.01,2013-02-09 13:25:00,
2013-02-09 07:26:00,25.1,18.0,30.31,SSW,202,6.2,6.2,74,0.00,,OVC012,0.00,VWS V14.01,2013-02-09 13:26:00,
2013-02-09 07:27:00,25.1,18.0,30.31,NNE,22,4.0,4.0,74,0.00,,OVC012,0.00,VWS V14.01,2013-02-09 13:27:00,
2013-02-09 07:31:00,25.1,18.0,30.31,SSE,158,6.6,7.6,74,0.00,,OVC012,0.00,VWS V14.01,2013-02-09 13:31:00,
2013-02-09 07:32:00,25.1,18.0,30.31,SSE,158,0.0,7.6,74,0.00,,OVC012,0.00,VWS V14.01,2013-02-09 13:32:00,
2013-02-09 07:33:00,25.1,18.0,30.31,SSW,202,6.6,6.6,74,0.00,,OVC012,0.00,VWS V14.01,2013-02-09 13:33:00,
2013-02-09 07:34:00,25.1,18.0,30.31,South,180,8.4,8.4,74,0.00,,OVC012,0.00,VWS V14.01,2013-02-09 13:34:00,
2013-02-09 07:38:00,25.1,18.0,30.31,South,180,6.6,8.0,74,0.00,,OVC012,0.00,VWS V14.01,2013-02-09 13:38:00,
2013-02-09 07:39:00,25.1,18.0,30.31,SSW,202,2.6,6.6,74,0.00,,OVC012,0.00,VWS V14.01,2013-02-09 13:39:00,
2013-02-09 07:41:00,25.1,18.0,30.31,South,180,4.4,8.4,74,0.00,,OVC012,0.00,VWS V14.01,2013-02-09 13:41:00,
2013-02-09 07:43:00,25.1,18.0,30.31,SSE,158,3.4,3.4,74,0.00,,OVC012,0.00,VWS V14.01,2013-02-09 13:43:00,
2013-02-09 07:45:00,25.1,18.0,30.31,SSE,158,0.0,5.2,74,0.00,,OVC012,0.00,VWS V14.01,2013-02-09 13:45:00,
2013-02-09 07:46:00,25.1,18.0,30.31,SSW,202,0.0,0.0,74,0.00,,OVC012,0.00,VWS V14.01,2013-02-09 13:46:00,
2013-02-09 07:50:00,25.1,18.0,30.30,SW,225,5.2,5.2,74,0.00,,OVC012,0.00,VWS V14.01,2013-02-09 13:50:00,
2013-02-09 07:51:00,25.3,18.2,30.30,South,180,0.8,5.2,74,0.00,,OVC012,0.00,VWS V14.01,2013-02-09 13:51:00,
2013-02-09 07:52:00,25.1,18.0,30.30,SSW,202,0.0,0.0,74,0.00,,OVC012,0.00,VWS V14.01,2013-02-09 13:52:00,
2013-02-09 07:56:00,25.1,18.0,30.30,South,180,8.0,8.0,74,0.00,,OVC012,0.00,VWS V14.01,2013-02-09 13:56:00,
2013-02-09 07:58:00,25.3,18.2,30.30,SSW,202,4.4,8.0,74,0.00,,OVC012,0.00,VWS V14.01,2013-02-09 13:58:00,
2013-02-09 07:59:00,25.1,18.0,30.30,South,180,12.4,12.4,74,0.00,,OVC012,0.00,VWS V14.01,2013-02-09 13:59:00,
2013-02-09 08:04:00,25.3,18.2,30.30,SSE,158,6.6,10.2,74,0.00,,OVC012,0.00,VWS V14.01,2013-02-09 14:04:00,
2013-02-09 08:06:00,25.3,18.2,30.30,SSE,158,2.6,6.6,74,0.00,,OVC012,0.00,VWS V14.01,2013-02-09 14:06:00,
2013-02-09 08:09:00,25.3,18.2,30.30,SSW,202,2.6,4.0,74,0.00,,OVC012,0.00,VWS V14.01,2013-02-09 14:09:00,
2013-02-09 08:11:00,25.3,18.2,30.31,SSW,202,0.0,2.6,74,0.00,,OVC012,0.00,VWS V14.01,2013-02-09 14:11:00,
2013-02-09 08:12:00,25.5,18.4,30.31,SSE,158,12.8,12.8,74,0.00,,OVC012,0.00,VWS V14.01,2013-02-09 14:12:00,
2013-02-09 08:14:00,25.3,18.2,30.31,SW,225,0.0,0.0,74,0.00,,OVC012,0.00,VWS V14.01,2013-02-09 14:14:00,
2013-02-09 08:15:00,25.3,18.2,30.30,SSW,202,6.2,6.2,74,0.00,,OVC012,0.00,VWS V14.01,2013-02-09 14:15:00,
2013-02-09 08:18:00,25.5,18.4,30.31,South,180,6.2,6.2,74,0.00,,OVC012,0.00,VWS V14.01,2013-02-09 14:18:00,
2013-02-09 08:21:00,25.5,18.4,30.30,South,180,7.0,7.0,74,0.00,,OVC012,0.00,VWS V14.01,2013-02-09 14:21:00,
2013-02-09 08:22:00,25.5,18.4,30.30,SSE,158,0.0,0.0,74,0.00,,OVC012,0.00,VWS V14.01,2013-02-09 14:22:00,
2013-02-09 08:23:00,25.5,18.4,30.30,South,180,11.0,11.0,74,0.00,,OVC012,0.00,VWS V14.01,2013-02-09 14:23:00,
2013-02-09 08:24:00,25.5,18.7,30.30,South,180,0.0,11.0,75,0.00,,OVC012,0.00,VWS V14.01,2013-02-09 14:24:00,
2013-02-09 08:27:00,25.7,18.6,30.30,South,180,5.2,5.2,74,0.00,,OVC012,0.00,VWS V14.01,2013-02-09 14:27:00,
2013-02-09 08:28:00,25.7,18.6,30.30,SSW,202,2.6,5.2,74,0.00,,OVC012,0.00,VWS V14.01,2013-02-09 14:28:00,
2013-02-09 08:30:00,25.5,18.4,30.30,SSW,202,6.2,6.2,74,0.00,,OVC012,0.00,VWS V14.01,2013-02-09 14:30:00,
2013-02-09 08:33:00,25.7,18.6,30.30,South,180,5.8,5.8,74,0.00,,OVC012,0.00,VWS V14.01,2013-02-09 14:33:00,
2013-02-09 08:34:00,25.7,18.6,30.30,South,180,4.8,5.8,74,0.00,,OVC012,0.00,VWS V14.01,2013-02-09 14:34:00,
2013-02-09 08:38:00,25.7,18.6,30.30,SSE,158,4.8,7.6,74,0.00,,OVC012,0.00,VWS V14.01,2013-02-09 14:38:00,
2013-02-09 08:40:00,25.7,18.6,30.30,South,180,7.6,7.6,74,0.00,,OVC012,0.00,VWS V14.01,2013-02-09 14:40:00,
2013-02-09 08:41:00,25.7,18.6,30.30,South,180,4.0,7.6,74,0.00,,OVC012,0.00,VWS V14.01,2013-02-09 14:41:00,
2013-02-09 08:43:00,25.7,18.6,30.30,SSW,202,5.8,6.2,74,0.00,,OVC012,0.00,VWS V14.01,2013-02-09 14:43:00,
2013-02-09 08:44:00,25.8,18.7,30.30,SW,225,4.8,6.2,74,0.00,,OVC012,0.00,VWS V14.01,2013-02-09 14:44:00,
2013-02-09 08:48:00,25.8,18.7,30.30,SSE,158,10.6,10.6,74,0.00,,OVC012,0.00,VWS V14.01,2013-02-09 14:48:00,
2013-02-09 08:49:00,26.0,18.9,30.30,SSE,158,9.2,10.6,74,0.00,,OVC012,0.00,VWS V14.01,2013-02-09 14:49:00,
2013-02-09 08:50:00,25.8,18.7,30.30,South,180,0.0,10.6,74,0.00,,OVC012,0.00,VWS V14.01,2013-02-09 14:50:00,
2013-02-09 08:51:00,26.0,18.9,30.29,SSW,202,6.2,6.2,74,0.00,,OVC012,0.00,VWS V14.01,2013-02-09 14:51:00,
2013-02-09 08:54:00,26.0,18.9,30.29,SSE,158,4.8,4.8,74,0.00,,OVC012,0.00,VWS V14.01,2013-02-09 14:54:00,
2013-02-09 08:55:00,26.0,18.9,30.29,South,180,9.8,9.8,74,0.00,,OVC012,0.00,VWS V14.01,2013-02-09 14:55:00,
2013-02-09 08:56:00,26.0,18.9,30.29,South,180,3.0,9.8,74,0.00,,OVC012,0.00,VWS V14.01,2013-02-09 14:56:00,
2013-02-09 08:58:00,26.0,18.9,30.29,South,180,11.0,11.0,74,0.00,,OVC012,0.00,VWS V14.01,2013-02-09 14:58:00,
2013-02-09 09:00:00,26.2,19.1,30.29,SSE,158,4.8,4.8,74,0.00,,OVC012,0.00,VWS V14.01,2013-02-09 15:00:00,
2013-02-09 09:02:00,26.2,19.1,30.29,SSE,158,7.6,7.6,74,0.00,,OVC012,0.00,VWS V14.01,2013-02-09 15:02:00,
2013-02-09 09:05:00,26.2,19.1,30.29,South,180,8.0,8.0,74,0.00,,OVC012,0.00,VWS V14.01,2013-02-09 15:05:00,
2013-02-09 09:07:00,26.2,19.1,30.29,SSE,158,6.2,7.0,74,0.00,,OVC012,0.00,VWS V14.01,2013-02-09 15:07:00,
2013-02-09 09:09:00,26.2,19.1,30.29,SSW,202,4.4,4.8,74,0.00,,OVC012,0.00,VWS V14.01,2013-02-09 15:09:00,
2013-02-09 09:12:00,26.2,19.1,30.29,SSW,202,0.0,0.0,74,0.00,,OVC012,0.00,VWS V14.01,2013-02-09 15:12:00,
2013-02-09 09:13:00,26.4,19.2,30.29,SSW,202,1.6,1.6,74,0.00,,OVC012,0.00,VWS V14.01,2013-02-09 15:13:00,
2013-02-09 09:14:00,26.4,19.2,30.29,SSE,158,7.6,7.6,74,0.00,,OVC012,0.00,VWS V14.01,2013-02-09 15:14:00,
2013-02-09 09:17:00,26.4,19.2,30.29,SSW,202,7.6,7.6,74,0.00,,OVC012,0.00,VWS V14.01,2013-02-09 15:17:00,
2013-02-09 09:18:00,26.4,19.2,30.28,SSW,202,0.0,7.6,74,0.00,,OVC012,0.00,VWS V14.01,2013-02-09 15:18:00,
2013-02-09 09:19:00,26.6,19.4,30.29,South,180,4.4,4.4,74,0.00,,OVC012,0.00,VWS V14.01,2013-02-09 15:19:00,
2013-02-09 09:21:00,26.7,19.5,30.29,South,180,11.6,11.6,74,0.00,,OVC012,0.00,VWS V14.01,2013-02-09 15:21:00,
2013-02-09 09:24:00,26.7,19.5,30.29,SSE,158,8.0,14.2,74,0.00,,OVC012,0.00,VWS V14.01,2013-02-09 15:24:00,
2013-02-09 09:26:00,26.6,19.1,30.28,South,180,8.8,8.8,73,0.00,,OVC012,0.00,VWS V14.01,2013-02-09 15:26:00,
2013-02-09 09:27:00,26.6,19.1,30.28,South,180,8.4,8.8,73,0.00,,OVC012,0.00,VWS V14.01,2013-02-09 15:27:00,
2013-02-09 09:32:00,26.6,19.1,30.28,South,180,3.4,11.6,73,0.00,,OVC012,0.00,VWS V14.01,2013-02-09 15:32:00,
2013-02-09 09:33:00,26.7,19.2,30.28,South,180,4.8,4.8,73,0.00,,OVC012,0.00,VWS V14.01,2013-02-09 15:33:00,
2013-02-09 09:37:00,26.7,19.2,30.28,South,180,6.6,6.6,73,0.00,,OVC012,0.00,VWS V14.01,2013-02-09 15:37:00,
2013-02-09 09:38:00,26.7,19.2,30.28,SSE,158,5.8,6.6,73,0.00,,OVC012,0.00,VWS V14.01,2013-02-09 15:38:00,
2013-02-09 09:43:00,26.7,19.2,30.28,SSE,158,10.2,10.2,73,0.00,,OVC012,0.00,VWS V14.01,2013-02-09 15:43:00,
2013-02-09 09:46:00,26.7,19.2,30.28,SSW,202,2.6,8.0,73,0.00,,OVC012,0.00,VWS V14.01,2013-02-09 15:46:00,
2013-02-09 09:47:00,26.7,19.2,30.28,SW,225,6.6,6.6,73,0.00,,OVC012,0.00,VWS V14.01,2013-02-09 15:47:00,
2013-02-09 09:50:00,26.9,19.4,30.28,South,180,7.6,7.6,73,0.00,,OVC012,0.00,VWS V14.01,2013-02-09 15:50:00,
2013-02-09 09:52:00,26.9,19.4,30.28,South,180,7.6,14.2,73,0.00,,OVC012,0.00,VWS V14.01,2013-02-09 15:52:00,
2013-02-09 09:53:00,26.9,19.4,30.28,South,180,8.4,8.4,73,0.00,,OVC012,0.00,VWS V14.01,2013-02-09 15:53:00,
2013-02-09 09:56:00,27.1,19.3,30.27,SSE,158,6.6,7.0,72,0.00,,OVC012,0.00,VWS V14.01,2013-02-09 15:56:00,
2013-02-09 09:58:00,27.3,19.5,30.27,South,180,13.4,13.4,72,0.00,,OVC012,0.00,VWS V14.01,2013-02-09 15:58:00,
2013-02-09 10:00:00,27.3,19.5,30.27,South,180,5.2,19.2,72,0.00,,OVC012,0.00,VWS V14.01,2013-02-09 16:00:00,
2013-02-09 10:01:00,27.3,19.5,30.27,SSW,202,3.0,3.0,72,0.00,,OVC012,0.00,VWS V14.01,2013-02-09 16:01:00,
2013-02-09 10:05:00,27.3,19.5,30.27,South,180,15.2,15.2,72,0.00,,OVC012,0.00,VWS V14.01,2013-02-09 16:05:00,
2013-02-09 10:06:00,27.5,19.7,30.27,NNE,22,4.8,15.2,72,0.00,,OVC012,0.00,VWS V14.01,2013-02-09 16:06:00,
2013-02-09 10:08:00,27.5,19.4,30.27,South,180,3.4,11.6,71,0.00,,OVC012,0.00,VWS V14.01,2013-02-09 16:08:00,
2013-02-09 10:12:00,27.5,19.4,30.27,SSE,158,14.2,14.2,71,0.00,,OVC012,0.00,VWS V14.01,2013-02-09 16:12:00,
2013-02-09 10:13:00,27.5,19.4,30.27,SW,225,9.2,9.2,71,0.00,,OVC012,0.00,VWS V14.01,2013-02-09 16:13:00,
2013-02-09 10:14:00,27.6,19.4,30.27,SSW,202,4.0,9.2,71,0.00,,OVC012,0.00,VWS V14.01,2013-02-09 16:14:00,
2013-02-09 10:16:00,27.6,19.4,30.26,South,180,4.4,10.6,71,0.00,,OVC012,0.00,VWS V14.01,2013-02-09 16:16:00,
2013-02-09 10:19:00,27.6,19.1,30.26,South,180,5.8,7.0,70,0.00,,OVC012,0.00,VWS V14.01,2013-02-09 16:19:00,
2013-02-09 10:20:00,27.6,19.1,30.26,SSE,158,0.0,7.0,70,0.00,,OVC012,0.00,VWS V14.01,2013-02-09 16:20:00,
2013-02-09 10:21:00,27.8,19.3,30.26,SSW,202,19.2,19.2,70,0.00,,OVC012,0.00,VWS V14.01,2013-02-09 16:21:00,
2013-02-09 10:22:00,27.6,19.1,30.26,North,0,0.0,0.0,70,0.00,,OVC012,0.00,VWS V14.01,2013-02-09 16:22:00,
2013-02-09 10:26:00,27.8,19.3,30.27,South,180,4.4,10.2,70,0.00,,OVC012,0.00,VWS V14.01,2013-02-09 16:26:00,
2013-02-09 10:27:00,27.8,19.3,30.26,SSE,158,10.2,10.2,70,0.00,,OVC012,0.00,VWS V14.01,2013-02-09 16:27:00,
2013-02-09 10:28:00,27.8,19.3,30.26,South,180,17.0,17.0,70,0.00,,OVC012,0.00,VWS V14.01,2013-02-09 16:28:00,
2013-02-09 10:31:00,27.6,19.1,30.26,SSW,202,12.4,12.4,70,0.00,,OVC012,0.00,VWS V14.01,2013-02-09 16:31:00,
2013-02-09 10:32:00,27.8,19.0,30.26,SSE,158,6.6,12.4,69,0.00,,OVC012,0.00,VWS V14.01,2013-02-09 16:32:00,
2013-02-09 10:34:00,28.0,19.2,30.26,SSE,158,7.6,7.6,69,0.00,,OVC012,0.00,VWS V14.01,2013-02-09 16:34:00,
2013-02-09 10:36:00,27.8,19.0,30.26,SSW,202,10.6,10.6,69,0.00,,OVC012,0.00,VWS V14.01,2013-02-09 16:36:00,
2013-02-09 10:37:00,28.0,19.2,30.26,SSE,158,7.0,10.6,69,0.00,,OVC012,0.00,VWS V14.01,2013-02-09 16:37:00,
2013-02-09 10:38:00,28.0,19.2,30.25,SSE,158,9.8,9.8,69,0.00,,OVC012,0.00,VWS V14.01,2013-02-09 16:38:00,
2013-02-09 10:41:00,28.2,19.4,30.25,SSW,202,7.0,10.2,69,0.00,,OVC014,0.00,VWS V14.01,2013-02-09 16:41:00,
2013-02-09 10:42:00,28.0,19.2,30.25,SSE,158,2.6,2.6,69,0.00,,OVC014,0.00,VWS V14.01,2013-02-09 16:42:00,
2013-02-09 10:43:00,28.2,19.4,30.25,SSE,158,7.0,7.0,69,0.00,,OVC014,0.00,VWS V14.01,2013-02-09 16:43:00,
2013-02-09 10:45:00,28.4,19.5,30.25,SSE,158,8.4,11.0,69,0.00,,OVC014,0.00,VWS V14.01,2013-02-09 16:45:00,
2013-02-09 10:48:00,28.5,19.6,30.25,SSE,158,10.2,10.6,69,0.00,,OVC014,0.00,VWS V14.01,2013-02-09 16:48:00,
2013-02-09 10:49:00,28.7,19.8,30.25,South,180,10.6,10.6,69,0.00,,OVC014,0.00,VWS V14.01,2013-02-09 16:49:00,
2013-02-09 10:51:00,28.7,19.8,30.25,SSE,158,9.2,17.0,69,0.00,,OVC014,0.00,VWS V14.01,2013-02-09 16:51:00,
2013-02-09 10:54:00,28.7,19.5,30.25,South,180,8.0,8.0,68,0.00,,OVC014,0.00,VWS V14.01,2013-02-09 16:54:00,
2013-02-09 10:57:00,28.9,19.7,30.25,SSE,158,1.6,2.6,68,0.00,,OVC014,0.00,VWS V14.01,2013-02-09 16:57:00,
2013-02-09 10:58:00,29.1,19.9,30.25,SSE,158,10.6,10.6,68,0.00,,OVC014,0.00,VWS V14.01,2013-02-09 16:58:00,
2013-02-09 10:59:00,28.9,19.7,30.25,SSE,158,12.4,12.4,68,0.00,,OVC014,0.00,VWS V14.01,2013-02-09 16:59:00,
2013-02-09 11:02:00,28.9,19.7,30.25,South,180,14.6,14.6,68,0.00,,OVC014,0.00,VWS V14.01,2013-02-09 17:02:00,
2013-02-09 11:04:00,28.9,19.3,30.24,SSE,158,8.8,15.2,67,0.00,,OVC014,0.00,VWS V14.01,2013-02-09 17:04:00,
2013-02-09 11:08:00,28.9,19.3,30.24,South,180,12.4,12.4,67,0.00,,OVC014,0.00,VWS V14.01,2013-02-09 17:08:00,
2013-02-09 11:09:00,28.9,19.3,30.24,SE,135,20.4,20.4,67,0.00,,OVC014,0.00,VWS V14.01,2013-02-09 17:09:00,
2013-02-09 11:10:00,29.1,19.5,30.24,SSE,158,6.6,20.4,67,0.00,,OVC014,0.00,VWS V14.01,2013-02-09 17:10:00,
2013-02-09 11:14:00,29.4,19.5,30.22,SE,135,8.8,18.6,66,0.00,,OVC014,0.00,VWS V14.01,2013-02-09 17:14:00,
2013-02-09 11:15:00,29.6,19.6,30.22,South,180,16.0,16.0,66,0.00,,OVC014,0.00,VWS V14.01,2013-02-09 17:15:00,
2013-02-09 11:18:00,30.0,20.0,30.22,South,180,1.6,1.6,66,0.00,,OVC014,0.00,VWS V14.01,2013-02-09 17:18:00,
2013-02-09 11:20:00,30.2,20.2,30.23,SE,135,9.8,18.2,66,0.00,,OVC014,0.00,VWS V14.01,2013-02-09 17:20:00,
2013-02-09 11:21:00,30.2,20.2,30.23,South,180,12.8,12.8,66,0.00,,OVC014,0.00,VWS V14.01,2013-02-09 17:21:00,
2013-02-09 11:22:00,30.2,19.9,30.23,SSW,202,5.2,12.8,65,0.00,,OVC014,0.00,VWS V14.01,2013-02-09 17:22:00,
2013-02-09 11:24:00,30.2,19.9,30.23,SSW,202,1.6,1.6,65,0.00,,OVC014,0.00,VWS V14.01,2013-02-09 17:24:00,
2013-02-09 11:28:00,30.9,20.5,30.22,SSE,158,11.6,21.4,65,0.00,,OVC014,0.00,VWS V14.01,2013-02-09 17:28:00,
2013-02-09 11:33:00,30.5,19.8,30.22,SSE,158,9.8,13.8,64,0.00,,OVC014,0.00,VWS V14.01,2013-02-09 17:33:00,
2013-02-09 11:34:00,30.5,19.8,30.22,ESE,112,22.8,22.8,64,0.00,,OVC014,0.00,VWS V14.01,2013-02-09 17:34:00,
2013-02-09 11:36:00,30.5,19.4,30.22,South,180,1.6,22.8,63,0.00,,OVC014,0.00,VWS V14.01,2013-02-09 17:36:00,
2013-02-09 11:37:00,30.5,19.4,30.22,SW,225,9.2,9.2,63,0.00,,OVC014,0.00,VWS V14.01,2013-02-09 17:37:00,
2013-02-09 11:39:00,30.5,19.4,30.22,SE,135,5.2,6.6,63,0.00,,OVC016,0.00,VWS V14.01,2013-02-09 17:39:00,
2013-02-09 11:40:00,30.5,19.4,30.22,SSW,202,23.2,23.2,63,0.00,,OVC016,0.00,VWS V14.01,2013-02-09 17:40:00,
2013-02-09 11:41:00,30.5,19.4,30.22,South,180,9.2,23.2,63,0.00,,OVC016,0.00,VWS V14.01,2013-02-09 17:41:00,
2013-02-09 11:42:00,30.5,19.4,30.22,SE,135,7.6,7.6,63,0.00,,OVC016,0.00,VWS V14.01,2013-02-09 17:42:00,
2013-02-09 11:47:00,30.7,19.6,30.22,SSE,158,4.8,17.0,63,0.00,,OVC016,0.00,VWS V14.01,2013-02-09 17:47:00,
2013-02-09 11:48:00,30.7,19.6,30.22,SW,225,4.0,17.0,63,0.00,,OVC016,0.00,VWS V14.01,2013-02-09 17:48:00,
2013-02-09 11:50:00,30.9,19.8,30.22,South,180,7.6,7.6,63,0.00,,OVC016,0.00,VWS V14.01,2013-02-09 17:50:00,
2013-02-09 11:51:00,30.7,19.6,30.22,SE,135,16.4,16.4,63,0.00,,OVC016,0.00,VWS V14.01,2013-02-09 17:51:00,
2013-02-09 11:52:00,30.9,19.8,30.22,SSE,158,9.2,9.2,63,0.00,,OVC016,0.00,VWS V14.01,2013-02-09 17:52:00,
2013-02-09 11:56:00,31.1,20.0,30.22,SSE,158,4.8,8.0,63,0.00,,OVC016,0.00,VWS V14.01,2013-02-09 17:56:00,
2013-02-09 11:58:00,31.1,20.4,30.21,ESE,112,24.0,24.0,64,0.00,,OVC016,0.00,VWS V14.01,2013-02-09 17:58:00,
2013-02-09 11:59:00,31.2,20.5,30.21,South,180,7.6,24.0,64,0.00,,OVC016,0.00,VWS V14.01,2013-02-09 17:59:00,
2013-02-09 12:01:00,31.2,20.5,30.22,SE,135,16.4,16.4,64,0.00,,OVC016,0.00,VWS V14.01,2013-02-09 18:01:00,
2013-02-09 12:02:00,31.2,20.1,30.21,West,270,0.0,0.0,63,0.00,,OVC016,0.00,VWS V14.01,2013-02-09 18:02:00,
2013-02-09 12:06:00,31.4,20.3,30.21,SSE,158,6.2,6.2,63,0.00,,OVC016,0.00,VWS V14.01,2013-02-09 18:06:00,
2013-02-09 12:07:00,31.4,20.3,30.21,SE,135,0.0,6.2,63,0.00,,OVC016,0.00,VWS V14.01,2013-02-09 18:07:00,
2013-02-09 12:08:00,31.4,20.3,30.21,SSW,202,4.0,6.2,63,0.00,,OVC016,0.00,VWS V14.01,2013-02-09 18:08:00,
2013-02-09 12:09:00,31.6,20.5,30.21,SSW,202,21.8,21.8,63,0.00,,OVC016,0.00,VWS V14.01,2013-02-09 18:09:00,
2013-02-09 12:12:00,31.6,20.5,30.21,SSW,202,5.8,8.4,63,0.00,,OVC016,0.00,VWS V14.01,2013-02-09 18:12:00,
2013-02-09 12:14:00,31.8,20.7,30.21,SSE,158,4.0,5.8,63,0.00,,OVC016,0.00,VWS V14.01,2013-02-09 18:14:00,
2013-02-09 12:16:00,32.0,20.9,30.21,SSE,158,7.0,8.8,63,0.00,,OVC016,0.00,VWS V14.01,2013-02-09 18:16:00,
2013-02-09 12:17:00,31.8,20.3,30.21,SSE,158,0.0,7.0,62,0.00,,OVC016,0.00,VWS V14.01,2013-02-09 18:17:00,
2013-02-09 12:22:00,32.1,20.6,30.21,South,180,3.0,6.6,62,0.00,,OVC016,0.00,VWS V14.01,2013-02-09 18:22:00,
2013-02-09 12:26:00,32.7,21.1,30.21,SE,135,5.8,5.8,62,0.00,,OVC016,0.00,VWS V14.01,2013-02-09 18:26:00,
2013-02-09 12:28:00,32.9,21.3,30.21,SSE,158,4.8,6.2,62,0.00,,OVC016,0.00,VWS V14.01,2013-02-09 18:28:00,
2013-02-09 12:29:00,32.9,21.3,30.21,SE,135,6.6,6.6,62,0.00,,OVC016,0.00,VWS V14.01,2013-02-09 18:29:00,
2013-02-09 12:30:00,32.9,20.9,30.21,North,0,0.0,0.0,61,0.00,,OVC016,0.00,VWS V14.01,2013-02-09 18:30:00,
2013-02-09 12:33:00,33.6,21.6,30.21,SSW,202,17.8,17.8,61,0.00,,OVC016,0.00,VWS V14.01,2013-02-09 18:33:00,
2013-02-09 12:34:00,33.8,21.8,30.20,SE,135,8.0,17.8,61,0.00,,OVC016,0.00,VWS V14.01,2013-02-09 18:34:00,
2013-02-09 12:35:00,33.9,21.9,30.21,South,180,6.2,8.0,61,0.00,,OVC016,0.00,VWS V14.01,2013-02-09 18:35:00,
2013-02-09 12:38:00,33.9,21.5,30.20,North,0,0.0,0.0,60,0.00,,OVC016,0.00,VWS V14.01,2013-02-09 18:38:00,
2013-02-09 12:40:00,33.9,21.5,30.20,SE,135,8.8,8.8,60,0.00,,OVC016,0.00,VWS V14.01,2013-02-09 18:40:00,
2013-02-09 12:42:00,33.9,21.1,30.20,SSW,202,0.0,8.8,59,0.00,,OVC016,0.00,VWS V14.01,2013-02-09 18:42:00,
2013-02-09 12:46:00,34.1,21.3,30.20,SSW,202,5.8,12.8,59,0.00,,OVC016,0.00,VWS V14.01,2013-02-09 18:46:00,
2013-02-09 12:47:00,34.5,21.7,30.20,SSE,158,0.0,5.8,59,0.00,,OVC016,0.00,VWS V14.01,2013-02-09 18:47:00,
2013-02-09 12:48:00,34.5,21.7,30.20,SSE,158,11.6,11.6,59,0.00,,OVC016,0.00,VWS V14.01,2013-02-09 18:48:00,
2013-02-09 12:51:00,35.0,21.7,30.19,SSE,158,0.0,0.0,58,0.00,,OVC016,0.00,VWS V14.01,2013-02-09 18:51:00,
2013-02-09 12:54:00,35.2,21.9,30.19,South,180,5.8,5.8,58,0.00,,OVC016,0.00,VWS V14.01,2013-02-09 18:54:00,
2013-02-09 12:57:00,35.4,21.7,30.19,SSE,158,5.8,5.8,57,0.00,,OVC016,0.00,VWS V14.01,2013-02-09 18:57:00,
2013-02-09 12:59:00,35.4,21.7,30.19,ESE,112,20.0,20.0,57,0.00,,OVC016,0.00,VWS V14.01,2013-02-09 18:59:00,
2013-02-09 13:00:00,35.4,21.3,30.19,SW,225,0.0,20.0,56,0.00,,OVC016,0.00,VWS V14.01,2013-02-09 19:00:00,
2013-02-09 13:02:00,35.2,21.1,30.19,South,180,4.8,4.8,56,0.00,,OVC016,0.00,VWS V14.01,2013-02-09 19:02:00,
2013-02-09 13:06:00,35.6,21.5,30.19,SSW,202,8.4,12.0,56,0.00,,OVC016,0.00,VWS V14.01,2013-02-09 19:06:00,
2013-02-09 13:07:00,35.7,21.6,30.19,SSW,202,9.8,9.8,56,0.00,,OVC016,0.00,VWS V14.01,2013-02-09 19:07:00,
2013-02-09 13:09:00,36.3,22.1,30.19,SSE,158,0.0,0.0,56,0.00,,OVC016,0.00,VWS V14.01,2013-02-09 19:09:00,
2013-02-09 13:10:00,36.8,23.0,30.19,SSW,202,1.6,1.6,57,0.00,,OVC016,0.00,VWS V14.01,2013-02-09 19:10:00,
2013-02-09 13:12:00,37.0,22.8,30.19,SW,225,8.8,8.8,56,0.00,,OVC016,0.00,VWS V14.01,2013-02-09 19:12:00,
2013-02-09 13:14:00,37.0,22.8,30.19,WNW,292,0.0,7.6,56,0.00,,OVC016,0.00,VWS V14.01,2013-02-09 19:14:00,
2013-02-09 13:18:00,37.0,22.4,30.19,South,180,0.0,0.0,55,0.00,,OVC016,0.00,VWS V14.01,2013-02-09 19:18:00,
2013-02-09 13:20:00,36.5,21.9,30.19,SSE,158,0.0,12.0,55,0.00,,OVC016,0.00,VWS V14.01,2013-02-09 19:20:00,
2013-02-09 13:21:00,36.5,21.9,30.19,SSE,158,0.0,0.0,55,0.00,,OVC016,0.00,VWS V14.01,2013-02-09 19:21:00,
2013-02-09 13:22:00,36.5,21.9,30.19,SE,135,8.4,8.4,55,0.00,,OVC016,0.00,VWS V14.01,2013-02-09 19:22:00,
2013-02-09 13:23:00,36.3,21.3,30.19,ESE,112,0.0,0.0,54,0.00,,OVC016,0.00,VWS V14.01,2013-02-09 19:23:00,
2013-02-09 13:25:00,36.8,22.2,30.19,SSE,158,2.2,2.2,55,0.00,,OVC016,0.00,VWS V14.01,2013-02-09 19:25:00,
2013-02-09 13:26:00,37.0,22.4,30.18,South,180,7.6,7.6,55,0.00,,OVC016,0.00,VWS V14.01,2013-02-09 19:26:00,
2013-02-09 13:28:00,37.5,22.8,30.19,SSE,158,3.4,7.6,55,0.00,,OVC016,0.00,VWS V14.01,2013-02-09 19:28:00,
2013-02-09 13:32:00,37.2,22.1,30.18,SSW,202,0.0,3.4,54,0.00,,OVC016,0.00,VWS V14.01,2013-02-09 19:32:00,
2013-02-09 13:33:00,37.0,21.9,30.18,West,270,2.6,2.6,54,0.00,,OVC016,0.00,VWS V14.01,2013-02-09 19:33:00,
2013-02-09 13:34:00,36.8,21.3,30.18,East,90,9.2,9.2,53,0.00,,OVC016,0.00,VWS V14.01,2013-02-09 19:34:00,
2013-02-09 13:38:00,35.7,20.3,30.18,ESE,112,5.8,5.8,53,0.00,,OVC016,0.00,VWS V14.01,2013-02-09 19:38:00,
2013-02-09 13:40:00,35.4,20.0,30.18,South,180,0.0,5.8,53,0.00,,OVC018,0.00,VWS V14.01,2013-02-09 19:40:00,
2013-02-09 13:43:00,35.0,20.0,30.17,SE,135,4.8,4.8,54,0.00,,OVC018,0.00,VWS V14.01,2013-02-09 19:43:00,
2013-02-09 13:46:00,35.2,20.2,30.17,SSE,158,2.6,5.8,54,0.00,,OVC018,0.00,VWS V14.01,2013-02-09 19:46:00,
2013-02-09 13:48:00,35.2,20.7,30.17,South,180,9.2,9.2,55,0.00,,OVC018,0.00,VWS V14.01,2013-02-09 19:48:00,
2013-02-09 13:50:00,35.7,21.6,30.17,South,180,4.0,4.0,56,0.00,,OVC018,0.00,VWS V14.01,2013-02-09 19:50:00,
2013-02-09 13:54:00,37.0,22.8,30.16,WSW,248,0.0,0.0,56,0.00,,OVC018,0.00,VWS V14.01,2013-02-09 19:54:00,
2013-02-09 13:55:00,37.5,23.2,30.17,SW,225,4.8,4.8,56,0.00,,OVC018,0.00,VWS V14.01,2013-02-09 19:55:00,
2013-02-09 13:59:00,37.5,22.8,30.16,SE,135,12.4,13.4,55,0.00,,OVC018,0.00,VWS V14.01,2013-02-09 19:59:00,
2013-02-09 14:01:00,37.5,22.4,30.16,SSW,202,0.0,0.0,54,0.00,,OVC018,0.00,VWS V14.01,2013-02-09 20:01:00,
2013-02-09 14:02:00,37.5,22.4,30.16,SSE,158,0.0,0.0,54,0.00,,OVC018,0.00,VWS V14.01,2013-02-09 20:02:00,
2013-02-09 14:05:00,37.9,22.8,30.16,SW,225,15.2,15.2,54,0.00,,OVC018,0.00,VWS V14.01,2013-02-09 20:05:00,
2013-02-09 14:06:00,37.9,22.3,30.16,SSW,202,0.0,15.2,53,0.00,,OVC018,0.00,VWS V14.01,2013-02-09 20:06:00,
2013-02-09 14:08:00,37.7,22.1,30.15,South,180,4.8,10.6,53,0.00,,OVC018,0.00,VWS V14.01,2013-02-09 20:08:00,
2013-02-09 14:09:00,37.5,21.5,30.15,SE,135,8.0,8.0,52,0.00,,OVC018,0.00,VWS V14.01,2013-02-09 20:09:00,
2013-02-09 14:14:00,37.2,21.2,30.15,ESE,112,7.0,7.0,52,0.00,,OVC018,0.00,VWS V14.01,2013-02-09 20:14:00,
2013-02-09 14:15:00,36.8,20.8,30.14,SE,135,5.8,7.0,52,0.00,,OVC018,0.00,VWS V14.01,2013-02-09 20:15:00,
2013-02-09 14:16:00,36.5,20.6,30.15,South,180,0.0,7.0,52,0.00,,OVC018,0.00,VWS V14.01,2013-02-09 20:16:00,
2013-02-09 14:20:00,36.5,21.0,30.14,ESE,112,0.0,0.0,53,0.00,,OVC018,0.00,VWS V14.01,2013-02-09 20:20:00,
2013-02-09 14:21:00,36.6,21.1,30.15,SW,225,2.6,2.6,53,0.00,,OVC018,0.00,VWS V14.01,2013-02-09 20:21:00,
2013-02-09 14:22:00,36.8,21.3,30.15,SE,135,4.4,4.4,53,0.00,,OVC018,0.00,VWS V14.01,2013-02-09 20:22:00,
2013-02-09 14:26:00,37.0,21.5,30.14,SE,135,12.4,12.4,53,0.00,,OVC018,0.00,VWS V14.01,2013-02-09 20:26:00,
2013-02-09 14:27:00,37.0,21.9,30.14,SSE,158,4.4,12.4,54,0.00,,OVC018,0.00,VWS V14.01,2013-02-09 20:27:00,
2013-02-09 14:31:00,36.6,21.1,30.14,SSE,158,8.8,8.8,53,0.00,,OVC018,0.00,VWS V14.01,2013-02-09 20:31:00,
2013-02-09 14:32:00,36.5,21.0,30.14,SSW,202,0.0,8.8,53,0.00,,OVC018,0.00,VWS V14.01,2013-02-09 20:32:00,
2013-02-09 14:36:00,36.1,20.6,30.14,SSW,202,0.0,0.0,53,0.00,,OVC018,0.00,VWS V14.01,2013-02-09 20:36:00,
2013-02-09 14:38:00,36.3,21.3,30.14,SW,225,0.0,0.0,54,0.00,,OVC018,0.00,VWS V14.01,2013-02-09 20:38:00,
2013-02-09 14:40:00,36.5,21.5,30.13,South,180,0.0,0.0,54,0.00,,SCT020,0.00,VWS V14.01,2013-02-09 20:40:00,
2013-02-09 14:44:00,36.5,21.5,30.14,SSE,158,8.4,8.4,54,0.00,,SCT020,0.00,VWS V14.01,2013-02-09 20:44:00,
2013-02-09 14:45:00,36.5,21.5,30.13,SE,135,0.0,8.4,54,0.00,,SCT020,0.00,VWS V14.01,2013-02-09 20:45:00,
2013-02-09 14:46:00,36.5,21.5,30.13,SE,135,1.6,1.6,54,0.00,,SCT020,0.00,VWS V14.01,2013-02-09 20:46:00,
2013-02-09 14:49:00,36.5,21.9,30.13,SSE,158,0.0,0.0,55,0.00,,SCT020,0.00,VWS V14.01,2013-02-09 20:49:00,
2013-02-09 14:51:00,36.5,21.9,30.13,South,180,0.0,8.8,55,0.00,,SCT020,0.00,VWS V14.01,2013-02-09 20:51:00,
2013-02-09 14:52:00,36.3,21.3,30.13,East,90,4.0,8.8,54,0.00,,SCT020,0.00,VWS V14.01,2013-02-09 20:52:00,
2013-02-09 14:53:00,36.3,21.3,30.13,ESE,112,2.2,4.0,54,0.00,,SCT020,0.00,VWS V14.01,2013-02-09 20:53:00,
2013-02-09 14:57:00,36.1,21.1,30.13,SE,135,0.0,0.0,54,0.00,,SCT020,0.00,VWS V14.01,2013-02-09 20:57:00,
2013-02-09 14:58:00,36.1,21.1,30.13,SSW,202,0.0,0.0,54,0.00,,SCT020,0.00,VWS V14.01,2013-02-09 20:58:00,
2013-02-09 15:03:00,35.9,21.3,30.13,SSE,158,0.0,4.8,55,0.00,,SCT020,0.00,VWS V14.01,2013-02-09 21:03:00,
2013-02-09 15:04:00,35.7,21.1,30.13,ESE,112,4.8,4.8,55,0.00,,SCT020,0.00,VWS V14.01,2013-02-09 21:04:00,
2013-02-09 15:06:00,35.7,21.1,30.13,South,180,6.6,6.6,55,0.00,,SCT020,0.00,VWS V14.01,2013-02-09 21:06:00,
2013-02-09 15:09:00,35.9,21.3,30.13,SW,225,0.0,2.6,55,0.00,,SCT020,0.00,VWS V14.01,2013-02-09 21:09:00,
2013-02-09 15:11:00,35.9,21.8,30.13,SW,225,7.0,7.0,56,0.00,,SCT020,0.00,VWS V14.01,2013-02-09 21:11:00,
2013-02-09 15:12:00,35.9,21.8,30.13,SE,135,0.0,7.0,56,0.00,,SCT020,0.00,VWS V14.01,2013-02-09 21:12:00,
2013-02-09 15:14:00,35.9,21.8,30.13,ESE,112,13.4,13.4,56,0.00,,SCT020,0.00,VWS V14.01,2013-02-09 21:14:00,
2013-02-09 15:17:00,35.7,21.6,30.13,SSE,158,10.6,10.6,56,0.00,,SCT020,0.00,VWS V14.01,2013-02-09 21:17:00,
2013-02-09 15:18:00,35.6,21.5,30.13,ESE,112,7.0,10.6,56,0.00,,SCT020,0.00,VWS V14.01,2013-02-09 21:18:00,
2013-02-09 15:19:00,35.7,21.6,30.12,South,180,0.0,7.0,56,0.00,,SCT020,0.00,VWS V14.01,2013-02-09 21:19:00,
2013-02-09 15:24:00,35.6,21.5,30.12,South,180,0.0,18.2,56,0.00,,SCT020,0.00,VWS V14.01,2013-02-09 21:24:00,
2013-02-09 15:26:00,35.4,21.3,30.12,SSE,158,16.4,16.4,56,0.00,,SCT020,0.00,VWS V14.01,2013-02-09 21:26:00,
2013-02-09 15:28:00,35.2,21.1,30.12,West,270,0.0,16.4,56,0.00,,SCT020,0.00,VWS V14.01,2013-02-09 21:28:00,
2013-02-09 15:30:00,35.2,21.1,30.12,SSE,158,0.0,13.8,56,0.00,,SCT020,0.00,VWS V14.01,2013-02-09 21:30:00,
2013-02-09 15:31:00,35.2,21.1,30.12,SSE,158,0.0,0.0,56,0.00,,SCT020,0.00,VWS V14.01,2013-02-09 21:31:00,
2013-02-09 15:34:00,35.2,21.1,30.12,SSE,158,0.0,12.8,56,0.00,,SCT020,0.00,VWS V14.01,2013-02-09 21:34:00,
2013-02-09 15:35:00,35.0,20.9,30.11,SSW,202,0.0,0.0,56,0.00,,SCT020,0.00,VWS V14.01,2013-02-09 21:35:00,
2013-02-09 15:37:00,35.0,21.3,30.11,SSE,158,0.0,0.0,57,0.00,,SCT020,0.00,VWS V14.01,2013-02-09 21:37:00,
2013-02-09 15:39:00,34.8,21.1,30.11,South,180,0.0,7.0,57,0.00,,FEW020,0.00,VWS V14.01,2013-02-09 21:39:00,
2013-02-09 15:42:00,35.0,21.3,30.11,SSW,202,1.2,5.8,57,0.00,,FEW020,0.00,VWS V14.01,2013-02-09 21:42:00,
2013-02-09 15:43:00,34.7,21.0,30.11,SSE,158,0.0,0.0,57,0.00,,FEW020,0.00,VWS V14.01,2013-02-09 21:43:00,
2013-02-09 15:46:00,35.0,21.7,30.11,ESE,112,0.0,0.0,58,0.00,,FEW020,0.00,VWS V14.01,2013-02-09 21:46:00,
2013-02-09 15:48:00,35.0,21.7,30.11,ESE,112,3.4,3.4,58,0.00,,FEW020,0.00,VWS V14.01,2013-02-09 21:48:00,
2013-02-09 15:49:00,35.0,21.7,30.11,SE,135,0.0,0.0,58,0.00,,FEW020,0.00,VWS V14.01,2013-02-09 21:49:00,
2013-02-09 15:52:00,35.0,21.7,30.11,ESE,112,0.0,0.0,58,0.00,,FEW020,0.00,VWS V14.01,2013-02-09 21:52:00,
2013-02-09 15:54:00,35.0,21.7,30.11,ESE,112,0.0,8.0,58,0.00,,FEW020,0.00,VWS V14.01,2013-02-09 21:54:00,
2013-02-09 15:56:00,35.2,22.3,30.11,South,180,0.0,0.0,59,0.00,,FEW020,0.00,VWS V14.01,2013-02-09 21:56:00,
2013-02-09 16:00:00,35.4,22.5,30.10,South,180,1.2,1.2,59,0.00,,FEW020,0.00,VWS V14.01,2013-02-09 22:00:00,
2013-02-09 16:02:00,35.7,22.8,30.10,South,180,0.0,0.0,59,0.00,,FEW020,0.00,VWS V14.01,2013-02-09 22:02:00,
2013-02-09 16:06:00,35.7,23.2,30.09,SE,135,1.6,1.6,60,0.00,,FEW020,0.00,VWS V14.01,2013-02-09 22:06:00,
2013-02-09 16:08:00,35.7,23.2,30.10,SE,135,0.0,0.0,60,0.00,,FEW020,0.00,VWS V14.01,2013-02-09 22:08:00,
2013-02-09 16:10:00,35.7,23.2,30.09,SE,135,4.8,7.0,60,0.00,,FEW020,0.00,VWS V14.01,2013-02-09 22:10:00,
2013-02-09 16:12:00,35.7,23.2,30.09,SSE,158,0.0,4.8,60,0.00,,FEW020,0.00,VWS V14.01,2013-02-09 22:12:00,
2013-02-09 16:14:00,35.7,23.2,30.09,SE,135,4.8,7.6,60,0.00,,FEW020,0.00,VWS V14.01,2013-02-09 22:14:00,
2013-02-09 16:15:00,35.7,23.2,30.09,SSE,158,0.4,4.8,60,0.00,,FEW020,0.00,VWS V14.01,2013-02-09 22:15:00,
2013-02-09 16:19:00,36.1,23.6,30.09,SSE,158,5.8,5.8,60,0.00,,FEW020,0.00,VWS V14.01,2013-02-09 22:19:00,
2013-02-09 16:20:00,36.1,23.6,30.09,ESE,112,0.0,5.8,60,0.00,,FEW020,0.00,VWS V14.01,2013-02-09 22:20:00,
2013-02-09 16:21:00,36.3,23.8,30.09,SSE,158,0.0,0.0,60,0.00,,FEW020,0.00,VWS V14.01,2013-02-09 22:21:00,
2013-02-09 16:24:00,36.5,24.0,30.09,ESE,112,0.0,5.2,60,0.00,,FEW020,0.00,VWS V14.01,2013-02-09 22:24:00,
2013-02-09 16:26:00,36.6,24.0,30.09,SE,135,0.0,4.8,60,0.00,,FEW020,0.00,VWS V14.01,2013-02-09 22:26:00,
2013-02-09 16:31:00,36.5,23.5,30.09,SSE,158,0.0,0.0,59,0.00,,FEW020,0.00,VWS V14.01,2013-02-09 22:31:00,
2013-02-09 16:32:00,36.5,23.5,30.09,SSE,158,0.0,0.0,59,0.00,,FEW020,0.00,VWS V14.01,2013-02-09 22:32:00,
2013-02-09 16:37:00,36.3,23.0,30.09,SE,135,6.2,6.2,58,0.00,,FEW020,0.00,VWS V14.01,2013-02-09 22:37:00,
2013-02-09 16:38:00,36.3,23.0,30.09,SSE,158,0.0,6.2,58,0.00,,FEW020,0.00,VWS V14.01,2013-02-09 22:38:00,
2013-02-09 16:43:00,35.7,22.4,30.08,SSE,158,11.0,11.0,58,0.00,,FEW020,0.00,VWS V14.01,2013-02-09 22:43:00,
2013-02-09 16:44:00,35.4,22.1,30.08,SE,135,0.0,11.0,58,0.00,,FEW020,0.00,VWS V14.01,2013-02-09 22:44:00,
2013-02-09 16:46:00,35.0,21.7,30.08,South,180,1.6,1.6,58,0.00,,FEW020,0.00,VWS V14.01,2013-02-09 22:46:00,
2013-02-09 16:48:00,34.8,21.5,30.08,South,180,3.4,3.4,58,0.00,,FEW020,0.00,VWS V14.01,2013-02-09 22:48:00,
2013-02-09 16:50:00,34.7,21.9,30.08,SSE,158,0.0,3.4,59,0.00,,FEW020,0.00,VWS V14.01,2013-02-09 22:50:00,
2013-02-09 16:53:00,34.8,22.3,30.08,ESE,112,0.0,0.0,60,0.00,,FEW020,0.00,VWS V14.01,2013-02-09 22:53:00,
2013-02-09 16:56:00,34.7,22.2,30.08,SE,135,0.0,2.6,60,0.00,,FEW020,0.00,VWS V14.01,2013-02-09 22:56:00,
2013-02-09 16:58:00,34.5,22.1,30.08,South,180,0.0,0.0,60,0.00,,FEW020,0.00,VWS V14.01,2013-02-09 22:58:00,
2013-02-09 17:01:00,34.3,22.3,30.08,SSE,158,0.0,0.0,61,0.00,,FEW020,0.00,VWS V14.01,2013-02-09 23:01:00,
2013-02-09 17:02:00,34.3,22.3,30.08,South,180,0.0,0.0,61,0.00,,FEW020,0.00,VWS V14.01,2013-02-09 23:02:00,
2013-02-09 17:04:00,34.3,22.3,30.08,SE,135,0.0,13.4,61,0.00,,FEW020,0.00,VWS V14.01,2013-02-09 23:04:00,
2013-02-09 17:07:00,34.1,22.5,30.08,ESE,112,4.4,4.4,62,0.00,,FEW020,0.00,VWS V14.01,2013-02-09 23:07:00,
2013-02-09 17:09:00,33.9,22.3,30.08,ESE,112,0.0,0.0,62,0.00,,FEW020,0.00,VWS V14.01,2013-02-09 23:09:00,
2013-02-09 17:10:00,33.9,22.3,30.07,South,180,0.0,0.0,62,0.00,,FEW020,0.00,VWS V14.01,2013-02-09 23:10:00,
2013-02-09 17:14:00,33.9,22.3,30.08,SSE,158,8.8,8.8,62,0.00,,FEW020,0.00,VWS V14.01,2013-02-09 23:14:00,
2013-02-09 17:15:00,33.9,22.3,30.08,NNE,22,9.8,9.8,62,0.00,,FEW020,0.00,VWS V14.01,2013-02-09 23:15:00,
2013-02-09 17:18:00,33.8,22.2,30.08,SSE,158,0.0,0.0,62,0.00,,FEW020,0.00,VWS V14.01,2013-02-09 23:18:00,
2013-02-09 17:20:00,33.6,22.0,30.08,South,180,0.0,0.0,62,0.00,,FEW020,0.00,VWS V14.01,2013-02-09 23:20:00,
2013-02-09 17:22:00,33.6,22.4,30.07,NNE,22,0.0,0.0,63,0.00,,FEW020,0.00,VWS V14.01,2013-02-09 23:22:00,
2013-02-09 17:23:00,33.4,22.2,30.07,SSE,158,0.0,0.0,63,0.00,,FEW020,0.00,VWS V14.01,2013-02-09 23:23:00,
2013-02-09 17:26:00,33.4,22.2,30.07,South,180,0.0,0.0,63,0.00,,FEW020,0.00,VWS V14.01,2013-02-09 23:26:00,
2013-02-09 17:29:00,33.2,22.4,30.07,SSE,158,2.6,2.6,64,0.00,,FEW020,0.00,VWS V14.01,2013-02-09 23:29:00,
2013-02-09 17:32:00,33.0,22.2,30.07,South,180,0.0,6.2,64,0.00,,FEW020,0.00,VWS V14.01,2013-02-09 23:32:00,
2013-02-09 17:34:00,33.0,22.2,30.07,NNE,22,0.0,0.0,64,0.00,,FEW020,0.00,VWS V14.01,2013-02-09 23:34:00,
2013-02-09 17:36:00,32.9,22.4,30.07,South,180,5.2,5.2,65,0.00,,FEW020,0.00,VWS V14.01,2013-02-09 23:36:00,
2013-02-09 17:37:00,32.9,22.4,30.06,SSE,158,0.0,5.2,65,0.00,,FEW020,0.00,VWS V14.01,2013-02-09 23:37:00,
2013-02-09 17:41:00,32.9,22.4,30.06,South,180,0.0,0.0,65,0.00,,CLR,0.00,VWS V14.01,2013-02-09 23:41:00,
2013-02-09 17:43:00,32.7,22.6,30.06,South,180,0.0,0.0,66,0.00,,CLR,0.00,VWS V14.01,2013-02-09 23:43:00,
2013-02-09 17:44:00,32.7,22.6,30.06,NNE,22,0.0,0.0,66,0.00,,CLR,0.00,VWS V14.01,2013-02-09 23:44:00,
2013-02-09 17:46:00,32.7,22.6,30.06,SSE,158,2.2,2.2,66,0.00,,CLR,0.00,VWS V14.01,2013-02-09 23:46:00,
2013-02-09 17:50:00,32.7,23.0,30.07,SSE,158,0.0,11.0,67,0.00,,CLR,0.00,VWS V14.01,2013-02-09 23:50:00,
2013-02-09 17:51:00,32.7,23.0,30.07,SSE,158,0.0,0.0,67,0.00,,CLR,0.00,VWS V14.01,2013-02-09 23:51:00,
2013-02-09 17:54:00,32.5,22.8,30.06,SSE,158,5.2,12.8,67,0.00,,CLR,0.00,VWS V14.01,2013-02-09 23:54:00,
2013-02-09 17:57:00,32.5,22.8,30.06,SSE,158,0.0,0.0,67,0.00,,CLR,0.00,VWS V14.01,2013-02-09 23:57:00,
2013-02-09 18:00:00,32.5,22.8,30.06,South,180,0.0,4.8,67,0.00,,CLR,0.00,VWS V14.01,2013-02-10 00:00:00,
2013-02-09 18:02:00,32.5,22.8,30.06,NNE,22,0.0,0.0,67,0.00,,CLR,0.00,VWS V14.01,2013-02-10 00:02:00,
2013-02-09 18:07:00,32.3,22.9,30.06,South,180,8.8,8.8,68,0.00,,CLR,0.00,VWS V14.01,2013-02-10 00:07:00,
2013-02-09 18:08:00,32.3,22.9,30.06,SSE,158,0.0,9.2,68,0.00,,CLR,0.00,VWS V14.01,2013-02-10 00:08:00,
2013-02-09 18:13:00,32.3,22.9,30.06,South,180,11.0,11.0,68,0.00,,CLR,0.00,VWS V14.01,2013-02-10 00:13:00,
2013-02-09 18:14:00,32.1,22.8,30.06,South,180,0.0,11.0,68,0.00,,CLR,0.00,VWS V14.01,2013-02-10 00:14:00,
2013-02-09 18:15:00,32.3,22.9,30.07,SSE,158,0.0,0.0,68,0.00,,CLR,0.00,VWS V14.01,2013-02-10 00:15:00,
2013-02-09 18:17:00,32.1,22.8,30.07,SW,225,3.4,4.0,68,0.00,,CLR,0.00,VWS V14.01,2013-02-10 00:17:00,
2013-02-09 18:20:00,32.1,23.1,30.06,SSE,158,5.2,6.6,69,0.00,,CLR,0.00,VWS V14.01,2013-02-10 00:20:00,
2013-02-09 18:21:00,32.1,23.1,30.06,South,180,0.0,5.2,69,0.00,,CLR,0.00,VWS V14.01,2013-02-10 00:21:00,
2013-02-09 18:26:00,32.1,23.1,30.06,SSE,158,12.0,12.0,69,0.00,,CLR,0.00,VWS V14.01,2013-02-10 00:26:00,
2013-02-09 18:28:00,32.1,23.1,30.06,South,180,0.0,0.0,69,0.00,,CLR,0.00,VWS V14.01,2013-02-10 00:28:00,
2013-02-09 18:31:00,32.1,23.1,30.06,SSE,158,0.0,0.0,69,0.00,,CLR,0.00,VWS V14.01,2013-02-10 00:31:00,
2013-02-09 18:32:00,32.0,23.0,30.06,SSE,158,0.0,0.0,69,0.00,,CLR,0.00,VWS V14.01,2013-02-10 00:32:00,
2013-02-09 18:35:00,31.8,22.8,30.06,SE,135,0.0,0.0,69,0.00,,CLR,0.00,VWS V14.01,2013-02-10 00:35:00,
2013-02-09 18:36:00,31.8,22.8,30.06,SSE,158,0.0,0.0,69,0.00,,CLR,0.00,VWS V14.01,2013-02-10 00:36:00,
2013-02-09 18:37:00,31.8,22.8,30.06,South,180,0.0,0.0,69,0.00,,CLR,0.00,VWS V14.01,2013-02-10 00:37:00,
2013-02-09 18:42:00,31.6,22.6,30.06,South,180,0.0,0.0,69,0.00,,CLR,0.00,VWS V14.01,2013-02-10 00:42:00,
2013-02-09 18:44:00,31.4,22.4,30.06,SSE,158,9.8,9.8,69,0.00,,CLR,0.00,VWS V14.01,2013-02-10 00:44:00,
2013-02-09 18:47:00,31.4,22.8,30.06,South,180,0.0,0.0,70,0.00,,CLR,0.00,VWS V14.01,2013-02-10 00:47:00,
2013-02-09 18:49:00,31.4,22.8,30.06,SSE,158,0.0,2.6,70,0.00,,CLR,0.00,VWS V14.01,2013-02-10 00:49:00,
2013-02-09 18:52:00,31.2,22.6,30.06,SSE,158,7.6,7.6,70,0.00,,CLR,0.00,VWS V14.01,2013-02-10 00:52:00,
2013-02-09 18:53:00,31.2,22.6,30.06,SSE,158,12.4,12.4,70,0.00,,CLR,0.00,VWS V14.01,2013-02-10 00:53:00,
2013-02-09 18:57:00,31.2,22.9,30.06,SSE,158,0.0,0.0,71,0.00,,CLR,0.00,VWS V14.01,2013-02-10 00:57:00,
2013-02-09 18:58:00,31.2,22.9,30.06,SSE,158,6.2,6.2,71,0.00,,CLR,0.00,VWS V14.01,2013-02-10 00:58:00,
2013-02-09 18:59:00,31.1,22.8,30.06,SSE,158,7.6,7.6,71,0.00,,CLR,0.00,VWS V14.01,2013-02-10 00:59:00,
2013-02-09 19:04:00,31.2,22.9,30.06,SSE,158,0.0,5.8,71,0.00,,CLR,0.00,VWS V14.01,2013-02-10 01:04:00,
2013-02-09 19:06:00,31.2,22.9,30.06,South,180,0.0,0.0,71,0.00,,CLR,0.00,VWS V14.01,2013-02-10 01:06:00,
2013-02-09 19:10:00,31.1,23.1,30.06,SSE,158,6.6,6.6,72,0.00,,CLR,0.00,VWS V14.01,2013-02-10 01:10:00,
2013-02-09 19:11:00,31.1,23.1,30.06,SSE,158,8.4,8.4,72,0.00,,CLR,0.00,VWS V14.01,2013-02-10 01:11:00,
2013-02-09 19:14:00,31.1,23.1,30.06,SSE,158,6.6,6.6,72,0.00,,CLR,0.00,VWS V14.01,2013-02-10 01:14:00,
2013-02-09 19:16:00,31.1,23.1,30.06,SSE,158,0.0,0.0,72,0.00,,CLR,0.00,VWS V14.01,2013-02-10 01:16:00,
2013-02-09 19:19:00,31.1,23.1,30.06,SSE,158,5.2,5.2,72,0.00,,CLR,0.00,VWS V14.01,2013-02-10 01:19:00,
2013-02-09 19:21:00,31.1,23.5,30.06,South,180,4.0,6.6,73,0.00,,CLR,0.00,VWS V14.01,2013-02-10 01:21:00,
2013-02-09 19:23:00,31.1,23.5,30.06,South,180,10.2,10.2,73,0.00,,CLR,0.00,VWS V14.01,2013-02-10 01:23:00,
2013-02-09 19:25:00,31.1,23.5,30.06,South,180,11.0,12.8,73,0.00,,CLR,0.00,VWS V14.01,2013-02-10 01:25:00,
2013-02-09 19:29:00,31.1,23.5,30.06,NNE,22,2.2,5.2,73,0.00,,CLR,0.00,VWS V14.01,2013-02-10 01:29:00,
2013-02-09 19:32:00,31.1,23.5,30.06,South,180,4.0,12.8,73,0.00,,CLR,0.00,VWS V14.01,2013-02-10 01:32:00,
2013-02-09 19:33:00,31.2,23.6,30.06,South,180,2.6,4.0,73,0.00,,CLR,0.00,VWS V14.01,2013-02-10 01:33:00,
2013-02-09 19:35:00,31.2,23.6,30.06,South,180,4.0,4.8,73,0.00,,CLR,0.00,VWS V14.01,2013-02-10 01:35:00,
2013-02-09 19:37:00,31.2,23.6,30.06,SSE,158,4.4,5.2,73,0.00,,CLR,0.00,VWS V14.01,2013-02-10 01:37:00,
2013-02-09 19:40:00,31.2,23.9,30.06,South,180,2.6,6.6,74,0.00,,CLR,0.00,VWS V14.01,2013-02-10 01:40:00,
2013-02-09 19:42:00,31.2,23.9,30.05,SSE,158,4.0,4.0,74,0.00,,CLR,0.00,VWS V14.01,2013-02-10 01:42:00,
2013-02-09 19:45:00,31.2,23.9,30.05,SSE,158,4.8,6.6,74,0.00,,CLR,0.00,VWS V14.01,2013-02-10 01:45:00,
2013-02-09 19:48:00,31.1,23.8,30.05,SSE,158,7.6,12.4,74,0.00,,CLR,0.00,VWS V14.01,2013-02-10 01:48:00,
2013-02-09 19:50:00,31.1,23.8,30.05,NNW,338,28.0,28.0,74,0.00,,CLR,0.00,VWS V14.01,2013-02-10 01:50:00,
2013-02-09 19:53:00,31.1,23.8,30.05,South,180,3.4,4.0,74,0.00,,CLR,0.00,VWS V14.01,2013-02-10 01:53:00,
2013-02-09 19:54:00,31.1,23.8,30.05,NNW,338,28.0,28.0,74,0.00,,CLR,0.00,VWS V14.01,2013-02-10 01:54:00,
2013-02-09 19:55:00,31.1,23.8,30.05,NNW,338,28.0,28.0,74,0.00,,CLR,0.00,VWS V14.01,2013-02-10 01:55:00,
2013-02-09 19:59:00,31.1,23.8,30.05,NNW,338,28.0,28.0,74,0.00,,CLR,0.00,VWS V14.01,2013-02-10 01:59:00,
2013-02-09 20:00:00,31.1,23.8,30.05,NNW,338,28.0,28.0,74,0.00,,CLR,0.00,VWS V14.01,2013-02-10 02:00:00,
2013-02-09 20:01:00,31.1,23.8,30.05,NNW,338,28.0,28.0,74,0.00,,CLR,0.00,VWS V14.01,2013-02-10 02:01:00,
2013-02-09 20:04:00,31.1,23.8,30.05,NNW,338,28.0,28.0,74,0.00,,CLR,0.00,VWS V14.01,2013-02-10 02:04:00,
2013-02-09 20:06:00,31.1,23.8,30.05,NNW,338,28.0,28.0,74,0.00,,CLR,0.00,VWS V14.01,2013-02-10 02:06:00,
2013-02-09 20:07:00,31.1,24.1,30.05,NNW,338,28.0,28.0,75,0.00,,CLR,0.00,VWS V14.01,2013-02-10 02:07:00,
2013-02-09 20:08:00,30.9,23.9,30.05,SSW,202,0.0,0.0,75,0.00,,CLR,0.00,VWS V14.01,2013-02-10 02:08:00,
2013-02-09 20:10:00,30.9,23.9,30.05,South,180,4.4,28.0,75,0.00,,CLR,0.00,VWS V14.01,2013-02-10 02:10:00,
2013-02-09 20:13:00,30.9,23.9,30.05,South,180,6.2,6.2,75,0.00,,CLR,0.00,VWS V14.01,2013-02-10 02:13:00,
2013-02-09 20:14:00,30.9,23.9,30.05,South,180,1.6,6.2,75,0.00,,CLR,0.00,VWS V14.01,2013-02-10 02:14:00,
2013-02-09 20:17:00,30.9,23.9,30.04,South,180,7.6,7.6,75,0.00,,CLR,0.00,VWS V14.01,2013-02-10 02:17:00,
2013-02-09 20:20:00,30.9,23.9,30.04,NNW,338,28.0,28.0,75,0.00,,CLR,0.00,VWS V14.01,2013-02-10 02:20:00,
2013-02-09 20:22:00,30.9,23.9,30.04,NNW,338,28.0,28.0,75,0.00,,CLR,0.00,VWS V14.01,2013-02-10 02:22:00,
2013-02-09 20:24:00,30.9,23.9,30.04,South,180,0.0,28.0,75,0.00,,CLR,0.00,VWS V14.01,2013-02-10 02:24:00,
2013-02-09 20:26:00,30.9,23.9,30.04,NNW,338,28.0,28.0,75,0.00,,CLR,0.00,VWS V14.01,2013-02-10 02:26:00,
2013-02-09 20:30:00,30.9,23.9,30.04,NNW,338,28.0,28.0,75,0.00,,CLR,0.00,VWS V14.01,2013-02-10 02:30:00,
2013-02-09 20:32:00,30.9,23.9,30.04,NNW,338,28.0,28.0,75,0.00,,CLR,0.00,VWS V14.01,2013-02-10 02:32:00,
2013-02-09 20:33:00,30.9,23.9,30.04,NNW,338,28.0,28.0,75,0.00,,CLR,0.00,VWS V14.01,2013-02-10 02:33:00,
2013-02-09 20:38:00,31.1,24.4,30.03,NNW,338,28.0,28.0,76,0.00,,CLR,0.00,VWS V14.01,2013-02-10 02:38:00,
2013-02-09 20:40:00,30.9,24.2,30.04,NNW,338,28.0,28.0,76,0.00,,CLR,0.00,VWS V14.01,2013-02-10 02:40:00,
2013-02-09 20:42:00,30.9,24.2,30.04,NNW,338,28.0,28.0,76,0.00,,CLR,0.00,VWS V14.01,2013-02-10 02:42:00,
2013-02-09 20:45:00,30.9,24.2,30.03,SSE,158,0.0,0.0,76,0.00,,CLR,0.00,VWS V14.01,2013-02-10 02:45:00,
2013-02-09 20:48:00,30.9,24.2,30.03,SE,135,6.6,28.0,76,0.00,,CLR,0.00,VWS V14.01,2013-02-10 02:48:00,
2013-02-09 20:50:00,30.9,24.2,30.03,SSE,158,6.2,6.2,76,0.00,,CLR,0.00,VWS V14.01,2013-02-10 02:50:00,
2013-02-09 20:52:00,30.9,24.2,30.03,South,180,3.0,28.0,76,0.00,,CLR,0.00,VWS V14.01,2013-02-10 02:52:00,
2013-02-09 20:56:00,30.7,24.0,30.03,NNW,338,28.0,28.0,76,0.00,,CLR,0.00,VWS V14.01,2013-02-10 02:56:00,
2013-02-09 20:57:00,30.7,24.0,30.03,SSE,158,4.4,28.0,76,0.00,,CLR,0.00,VWS V14.01,2013-02-10 02:57:00,
2013-02-09 21:00:00,30.7,24.0,30.03,NNW,338,28.0,28.0,76,0.00,,CLR,0.00,VWS V14.01,2013-02-10 03:00:00,
2013-02-09 21:02:00,30.7,24.0,30.03,NE,45,1.2,28.0,76,0.00,,CLR,0.00,VWS V14.01,2013-02-10 03:02:00,
2013-02-09 21:04:00,30.5,23.9,30.02,South,180,5.8,5.8,76,0.00,,CLR,0.00,VWS V14.01,2013-02-10 03:04:00,
2013-02-09 21:05:00,30.5,23.9,30.02,South,180,0.0,5.8,76,0.00,,CLR,0.00,VWS V14.01,2013-02-10 03:05:00,
2013-02-09 21:06:00,30.7,24.0,30.02,SSE,158,1.6,5.8,76,0.00,,CLR,0.00,VWS V14.01,2013-02-10 03:06:00,
2013-02-09 21:08:00,30.7,24.4,30.02,South,180,0.0,0.0,77,0.00,,CLR,0.00,VWS V14.01,2013-02-10 03:08:00,
2013-02-09 21:10:00,30.7,24.4,30.03,South,180,5.2,5.2,77,0.00,,CLR,0.00,VWS V14.01,2013-02-10 03:10:00,
2013-02-09 21:11:00,30.7,24.4,30.03,South,180,0.0,5.2,77,0.00,,CLR,0.00,VWS V14.01,2013-02-10 03:11:00,
2013-02-09 21:14:00,30.7,24.4,30.03,SSW,202,0.0,0.0,77,0.00,,CLR,0.00,VWS V14.01,2013-02-10 03:14:00,
2013-02-09 21:16:00,30.7,24.4,30.02,NNW,338,28.0,28.0,77,0.00,,CLR,0.00,VWS V14.01,2013-02-10 03:16:00,
2013-02-09 21:20:00,30.5,24.2,30.02,SSE,158,0.0,3.0,77,0.00,,CLR,0.00,VWS V14.01,2013-02-10 03:20:00,
2013-02-09 21:21:00,30.5,24.2,30.03,SSE,158,0.0,0.0,77,0.00,,CLR,0.00,VWS V14.01,2013-02-10 03:21:00,
2013-02-09 21:22:00,30.5,24.2,30.03,SSE,158,1.6,1.6,77,0.00,,CLR,0.00,VWS V14.01,2013-02-10 03:22:00,
2013-02-09 21:25:00,30.5,24.2,30.03,SE,135,3.4,3.4,77,0.00,,CLR,0.00,VWS V14.01,2013-02-10 03:25:00,
2013-02-09 21:26:00,30.5,24.2,30.02,SE,135,2.2,3.4,77,0.00,,CLR,0.00,VWS V14.01,2013-02-10 03:26:00,
2013-02-09 21:27:00,30.5,24.2,30.02,SSE,158,0.0,2.2,77,0.00,,CLR,0.00,VWS V14.01,2013-02-10 03:27:00,
2013-02-09 21:28:00,30.5,24.2,30.02,SSE,158,0.0,2.2,77,0.00,,CLR,0.00,VWS V14.01,2013-02-10 03:28:00,
2013-02-09 21:32:00,30.5,24.2,30.02,SSE,158,0.0,0.0,77,0.00,,CLR,0.00,VWS V14.01,2013-02-10 03:32:00,
2013-02-09 21:34:00,30.5,24.2,30.02,SSE,158,0.0,0.0,77,0.00,,CLR,0.00,VWS V14.01,2013-02-10 03:34:00,
2013-02-09 21:35:00,30.3,24.0,30.02,SSE,158,0.0,0.0,77,0.00,,CLR,0.00,VWS V14.01,2013-02-10 03:35:00,
2013-02-09 21:38:00,30.5,24.2,30.02,South,180,0.0,0.0,77,0.00,,CLR,0.00,VWS V14.01,2013-02-10 03:38:00,
2013-02-09 21:39:00,30.5,24.5,30.02,South,180,3.0,3.0,78,0.00,,CLR,0.00,VWS V14.01,2013-02-10 03:39:00,
2013-02-09 21:43:00,30.5,24.5,30.02,SSE,158,0.0,0.0,78,0.00,,CLR,0.00,VWS V14.01,2013-02-10 03:43:00,
2013-02-09 21:45:00,30.7,24.7,30.02,NE,45,0.0,0.0,78,0.00,,CLR,0.00,VWS V14.01,2013-02-10 03:45:00,
2013-02-09 21:46:00,30.5,24.5,30.02,SSE,158,0.0,0.0,78,0.00,,CLR,0.00,VWS V14.01,2013-02-10 03:46:00,
2013-02-09 21:48:00,30.5,24.5,30.02,SSE,158,3.4,3.4,78,0.00,,CLR,0.00,VWS V14.01,2013-02-10 03:48:00,
2013-02-09 21:50:00,30.7,24.7,30.01,SSE,158,0.0,0.0,78,0.00,,CLR,0.00,VWS V14.01,2013-02-10 03:50:00,
2013-02-09 21:51:00,30.7,24.7,30.01,SSE,158,0.0,0.0,78,0.00,,CLR,0.00,VWS V14.01,2013-02-10 03:51:00,
2013-02-09 21:53:00,30.7,24.7,30.02,SSE,158,0.0,0.0,78,0.00,,CLR,0.00,VWS V14.01,2013-02-10 03:53:00,
2013-02-09 21:56:00,30.7,24.7,30.02,SSE,158,0.0,0.0,78,0.00,,CLR,0.00,VWS V14.01,2013-02-10 03:56:00,
2013-02-09 21:57:00,30.7,24.7,30.01,SSE,158,0.0,0.0,78,0.00,,CLR,0.00,VWS V14.01,2013-02-10 03:57:00,
2013-02-09 21:58:00,30.7,24.7,30.02,South,180,0.0,0.0,78,0.00,,CLR,0.00,VWS V14.01,2013-02-10 03:58:00,
2013-02-09 22:00:00,30.7,24.7,30.02,NE,45,0.0,0.0,78,0.00,,CLR,0.00,VWS V14.01,2013-02-10 04:00:00,
2013-02-09 22:01:00,30.7,24.7,30.02,SSE,158,0.0,0.0,78,0.00,,CLR,0.00,VWS V14.01,2013-02-10 04:01:00,
2013-02-09 22:02:00,30.7,24.7,30.02,SSE,158,0.0,0.0,78,0.00,,CLR,0.00,VWS V14.01,2013-02-10 04:02:00,
2013-02-09 22:03:00,30.7,24.7,30.02,SSE,158,0.0,0.0,78,0.00,,CLR,0.00,VWS V14.01,2013-02-10 04:03:00,
2013-02-09 22:08:00,30.5,24.5,30.01,NNE,22,0.0,3.4,78,0.00,,CLR,0.00,VWS V14.01,2013-02-10 04:08:00,
2013-02-09 22:10:00,30.7,24.7,30.01,NNE,22,4.4,4.4,78,0.00,,CLR,0.00,VWS V14.01,2013-02-10 04:10:00,
2013-02-09 22:11:00,30.5,24.5,30.01,NE,45,0.0,4.4,78,0.00,,CLR,0.00,VWS V14.01,2013-02-10 04:11:00,
2013-02-09 22:14:00,30.5,24.8,30.01,SSE,158,0.0,6.2,79,0.00,,CLR,0.00,VWS V14.01,2013-02-10 04:14:00,
2013-02-09 22:16:00,30.5,24.5,30.01,South,180,0.0,0.0,78,0.00,,CLR,0.00,VWS V14.01,2013-02-10 04:16:00,
2013-02-09 22:19:00,30.7,25.0,30.00,SSE,158,0.0,0.0,79,0.00,,CLR,0.00,VWS V14.01,2013-02-10 04:19:00,
2013-02-09 22:21:00,30.5,24.8,30.01,SE,135,0.8,0.8,79,0.00,,CLR,0.00,VWS V14.01,2013-02-10 04:21:00,
2013-02-09 22:22:00,30.7,25.0,30.00,SSW,202,0.0,0.8,79,0.00,,CLR,0.00,VWS V14.01,2013-02-10 04:22:00,
2013-02-09 22:23:00,30.7,25.0,30.01,SSE,158,0.0,0.0,79,0.00,,CLR,0.00,VWS V14.01,2013-02-10 04:23:00,
2013-02-09 22:24:00,30.7,25.0,30.00,SSE,158,0.0,0.0,79,0.00,,CLR,0.00,VWS V14.01,2013-02-10 04:24:00,
2013-02-09 22:27:00,30.7,25.0,30.00,SSE,158,6.6,6.6,79,0.00,,CLR,0.00,VWS V14.01,2013-02-10 04:27:00,
2013-02-09 22:28:00,30.5,24.8,30.00,SE,135,0.0,0.0,79,0.00,,CLR,0.00,VWS V14.01,2013-02-10 04:28:00,
2013-02-09 22:30:00,30.9,25.2,30.00,South,180,0.0,4.0,79,0.00,,CLR,0.00,VWS V14.01,2013-02-10 04:30:00,
2013-02-09 22:34:00,30.9,25.2,30.00,NNE,22,4.4,4.4,79,0.00,,CLR,0.00,VWS V14.01,2013-02-10 04:34:00,
2013-02-09 22:37:00,30.7,25.0,30.00,NNE,22,0.0,0.0,79,0.00,,CLR,0.00,VWS V14.01,2013-02-10 04:37:00,
2013-02-09 22:38:00,30.9,25.2,30.00,SSE,158,3.0,3.0,79,0.00,,CLR,0.00,VWS V14.01,2013-02-10 04:38:00,
2013-02-09 22:40:00,30.9,25.2,30.00,SSE,158,0.0,1.2,79,0.00,,FEW110,0.00,VWS V14.01,2013-02-10 04:40:00,
2013-02-09 22:41:00,30.9,25.2,30.00,SSE,158,0.0,0.0,79,0.00,,FEW110,0.00,VWS V14.01,2013-02-10 04:41:00,
2013-02-09 22:43:00,30.7,25.0,29.99,SSE,158,0.0,0.0,79,0.00,,FEW110,0.00,VWS V14.01,2013-02-10 04:43:00,
2013-02-09 22:44:00,30.9,25.2,29.99,SSE,158,0.0,0.0,79,0.00,,FEW110,0.00,VWS V14.01,2013-02-10 04:44:00,
2013-02-09 22:46:00,30.7,25.0,30.00,NNE,22,0.0,0.0,79,0.00,,FEW110,0.00,VWS V14.01,2013-02-10 04:46:00,
2013-02-09 22:47:00,30.9,25.2,30.00,South,180,0.0,0.0,79,0.00,,FEW110,0.00,VWS V14.01,2013-02-10 04:47:00,
2013-02-09 22:48:00,30.7,25.0,30.00,South,180,0.0,0.0,79,0.00,,FEW110,0.00,VWS V14.01,2013-02-10 04:48:00,
2013-02-09 22:51:00,30.7,25.3,30.00,SSE,158,4.4,4.4,80,0.00,,FEW110,0.00,VWS V14.01,2013-02-10 04:51:00,
2013-02-09 22:52:00,30.7,25.0,29.99,SSE,158,0.0,0.0,79,0.00,,FEW110,0.00,VWS V14.01,2013-02-10 04:52:00,
2013-02-09 22:56:00,30.5,24.8,29.99,SSE,158,0.0,3.0,79,0.00,,FEW110,0.00,VWS V14.01,2013-02-10 04:56:00,
2013-02-09 22:57:00,30.7,25.3,29.99,SSE,158,0.0,0.0,80,0.00,,FEW110,0.00,VWS V14.01,2013-02-10 04:57:00,
2013-02-09 23:00:00,30.5,25.1,29.99,SSE,158,0.0,0.0,80,0.00,,FEW110,0.00,VWS V14.01,2013-02-10 05:00:00,
2013-02-09 23:01:00,30.5,25.1,29.99,SSE,158,0.0,0.0,80,0.00,,FEW110,0.00,VWS V14.01,2013-02-10 05:01:00,
2013-02-09 23:02:00,30.5,25.1,29.99,SSE,158,0.0,0.0,80,0.00,,FEW110,0.00,VWS V14.01,2013-02-10 05:02:00,
2013-02-09 23:05:00,30.3,24.6,29.99,SSE,158,0.0,0.0,79,0.00,,FEW110,0.00,VWS V14.01,2013-02-10 05:05:00,
2013-02-09 23:08:00,30.3,24.9,29.99,SSE,158,0.0,0.0,80,0.00,,FEW110,0.00,VWS V14.01,2013-02-10 05:08:00,
2013-02-09 23:10:00,30.3,24.9,29.99,SE,135,0.0,0.0,80,0.00,,FEW110,0.00,VWS V14.01,2013-02-10 05:10:00,
2013-02-09 23:11:00,30.3,24.9,29.99,SE,135,0.0,0.0,80,0.00,,FEW110,0.00,VWS V14.01,2013-02-10 05:11:00,
2013-02-09 23:12:00,30.3,24.9,29.99,SE,135,0.0,0.0,80,0.00,,FEW110,0.00,VWS V14.01,2013-02-10 05:12:00,
2013-02-09 23:14:00,30.3,24.9,29.99,SE,135,0.0,0.0,80,0.00,,FEW110,0.00,VWS V14.01,2013-02-10 05:14:00,
2013-02-09 23:17:00,30.3,24.9,29.99,SSE,158,0.0,0.0,80,0.00,,FEW110,0.00,VWS V14.01,2013-02-10 05:17:00,
2013-02-09 23:18:00,30.3,24.9,29.99,SSE,158,0.0,0.0,80,0.00,,FEW110,0.00,VWS V14.01,2013-02-10 05:18:00,
2013-02-09 23:19:00,30.2,24.8,29.99,SSE,158,0.0,0.0,80,0.00,,FEW110,0.00,VWS V14.01,2013-02-10 05:19:00,
2013-02-09 23:23:00,30.3,24.9,29.98,SSE,158,0.0,0.0,80,0.00,,FEW110,0.00,VWS V14.01,2013-02-10 05:23:00,
2013-02-09 23:24:00,30.3,24.9,29.99,SSE,158,0.0,0.0,80,0.00,,FEW110,0.00,VWS V14.01,2013-02-10 05:24:00,
2013-02-09 23:28:00,30.3,24.9,29.99,SSE,158,0.0,0.0,80,0.00,,FEW110,0.00,VWS V14.01,2013-02-10 05:28:00,
2013-02-09 23:29:00,30.3,24.9,29.99,SSE,158,0.0,0.0,80,0.00,,FEW110,0.00,VWS V14.01,2013-02-10 05:29:00,
2013-02-09 23:30:00,30.3,24.9,29.98,SSE,158,0.0,0.0,80,0.00,,FEW110,0.00,VWS V14.01,2013-02-10 05:30:00,
2013-02-09 23:32:00,30.3,24.9,29.98,SSE,158,0.0,0.0,80,0.00,,FEW110,0.00,VWS V14.01,2013-02-10 05:32:00,
2013-02-09 23:35:00,30.5,25.1,29.99,SSE,158,0.0,0.0,80,0.00,,FEW110,0.00,VWS V14.01,2013-02-10 05:35:00,
2013-02-09 23:36:00,30.5,25.1,29.99,SSE,158,0.0,0.0,80,0.00,,FEW110,0.00,VWS V14.01,2013-02-10 05:36:00,
2013-02-09 23:37:00,30.3,24.9,29.99,SSE,158,0.0,0.0,80,0.00,,FEW110,0.00,VWS V14.01,2013-02-10 05:37:00,
2013-02-09 23:39:00,30.5,25.4,30.00,SSE,158,0.0,0.0,81,0.00,,FEW110,0.00,VWS V14.01,2013-02-10 05:39:00,
2013-02-09 23:41:00,30.7,25.6,30.00,South,180,0.0,0.0,81,0.00,,BKN110,0.00,VWS V14.01,2013-02-10 05:41:00,
2013-02-09 23:42:00,30.7,25.6,30.00,South,180,0.0,0.0,81,0.00,,BKN110,0.00,VWS V14.01,2013-02-10 05:42:00,
2013-02-09 23:44:00,30.9,25.8,30.00,SSE,158,0.0,0.0,81,0.00,,BKN110,0.00,VWS V14.01,2013-02-10 05:44:00,
2013-02-09 23:45:00,30.9,25.8,30.00,SSW,202,0.0,0.0,81,0.00,,BKN110,0.00,VWS V14.01,2013-02-10 05:45:00,
2013-02-09 23:47:00,30.9,25.8,30.00,South,180,0.0,0.0,81,0.00,,BKN110,0.00,VWS V14.01,2013-02-10 05:47:00,
2013-02-09 23:48:00,31.1,26.0,30.00,South,180,0.0,0.0,81,0.00,,BKN110,0.00,VWS V14.01,2013-02-10 05:48:00,
2013-02-09 23:50:00,31.1,26.0,30.00,SSE,158,0.0,0.0,81,0.00,,BKN110,0.00,VWS V14.01,2013-02-10 05:50:00,
2013-02-09 23:52:00,31.2,26.1,29.99,South,180,2.2,2.2,81,0.00,,BKN110,0.00,VWS V14.01,2013-02-10 05:52:00,
2013-02-09 23:54:00,31.2,26.1,29.99,SSE,158,0.0,2.2,81,0.00,,BKN110,0.00,VWS V14.01,2013-02-10 05:54:00,
2013-02-09 23:55:00,31.2,26.1,29.99,SSE,158,0.0,0.0,81,0.00,,BKN110,0.00,VWS V14.01,2013-02-10 05:55:00,
2013-02-09 23:58:00,31.2,26.1,30.00,South,180,0.0,0.0,81,0.00,,BKN110,0.00,VWS V14.01,2013-02-10 05:58:00,